| time (UTC) | temp F | wind direction | speed MPH | gust MPH | rain 1hr in | rain 24hr in | rain mn in | humidity % | barometer mb |
| 20260503200100 | 65 | 310 | 0.0 | 0.0 | 0.00 | 0.00 | 0.00 | 26 | 1015.0 |
| 20260503200012 | 66 | 14 | 0.0 | 0.0 | 0.00 | 0.00 | 0.00 | 25 | 1015.0 |
| 20260503195922 | 66 | 32 | 0.0 | 2.0 | 0.00 | 0.00 | 0.00 | 29 | 1015.0 |
| 20260503195829 | 66 | 201 | 0.0 | 2.0 | 0.00 | 0.00 | 0.00 | 26 | 1015.0 |
| 20260503195714 | 66 | 123 | 0.0 | 2.0 | 0.00 | 0.00 | 0.00 | 26 | 1014.9 |
| 20260503195628 | 66 | 132 | 0.0 | 2.0 | 0.00 | 0.00 | 0.00 | 26 | 1014.9 |
| 20260503195513 | 66 | 219 | 0.0 | 2.0 | 0.00 | 0.00 | 0.00 | 29 | 1015.0 |
| 20260503195419 | 66 | 269 | 0.0 | 2.0 | 0.00 | 0.00 | 0.00 | 28 | 1015.0 |
| 20260503195309 | 66 | 44 | 0.0 | 2.0 | 0.00 | 0.00 | 0.00 | 29 | 1015.0 |
| 20260503195215 | 66 | 5 | 0.0 | 2.0 | 0.00 | 0.00 | 0.00 | 32 | 1015.0 |
| 20260503195121 | 66 | 41 | 0.0 | 2.0 | 0.00 | 0.00 | 0.00 | 28 | 1015.0 |
| 20260503195034 | 66 | 355 | 0.0 | 2.0 | 0.00 | 0.00 | 0.00 | 31 | 1015.0 |
| 20260503194920 | 66 | 342 | 0.0 | 0.0 | 0.00 | 0.00 | 0.00 | 29 | 1015.0 |
| 20260503194810 | 66 | 322 | 0.0 | 0.0 | 0.00 | 0.00 | 0.00 | 28 | 1015.0 |
| 20260503194716 | 66 | 71 | 0.0 | 0.0 | 0.00 | 0.00 | 0.00 | 29 | 1015.1 |
| 20260503194622 | 66 | 274 | 0.0 | 5.0 | 0.00 | 0.00 | 0.00 | 28 | 1015.1 |
| 20260503194536 | 66 | 279 | 0.0 | 5.0 | 0.00 | 0.00 | 0.00 | 26 | 1015.2 |
| 20260503194525 | 65 | 301 | 0.0 | 5.0 | 0.00 | 0.00 | 0.00 | 26 | 1015.2 |
| 20260503194414 | 66 | 309 | 0.0 | 5.0 | 0.00 | 0.00 | 0.00 | 29 | 1015.1 |
| 20260503194312 | 66 | 228 | 0.0 | 5.0 | 0.00 | 0.00 | 0.00 | 26 | 1015.1 |
| 20260503194236 | 66 | 333 | 0.0 | 5.0 | 0.00 | 0.00 | 0.00 | 28 | 1015.2 |
| 20260503194121 | 66 | 209 | 0.0 | 5.0 | 0.00 | 0.00 | 0.00 | 28 | 1015.2 |
| 20260503194034 | 65 | 292 | 0.0 | 5.0 | 0.00 | 0.00 | 0.00 | 28 | 1015.2 |
| 20260503193920 | 65 | 355 | 1.0 | 9.0 | 0.00 | 0.00 | 0.00 | 28 | 1015.1 |
| 20260503193846 | 65 | 298 | 1.0 | 11.0 | 0.00 | 0.00 | 0.00 | 28 | 1015.1 |
| 20260503193711 | 65 | 5 | 0.0 | 11.0 | 0.00 | 0.00 | 0.00 | 29 | 1015.1 |
| 20260503193628 | 65 | 360 | 0.0 | 11.0 | 0.00 | 0.00 | 0.00 | 30 | 1015.1 |
| 20260503193514 | 65 | 316 | 0.0 | 11.0 | 0.00 | 0.00 | 0.00 | 28 | 1015.2 |
| 20260503193440 | 65 | 329 | 0.0 | 11.0 | 0.00 | 0.00 | 0.00 | 28 | 1015.2 |
| 20260503193325 | 65 | 290 | 0.0 | 11.0 | 0.00 | 0.00 | 0.00 | 28 | 1015.2 |
| 20260503193238 | 65 | 328 | 2.0 | 11.0 | 0.00 | 0.00 | 0.00 | 27 | 1015.3 |
| 20260503193123 | 65 | 298 | 2.0 | 11.0 | 0.00 | 0.00 | 0.00 | 27 | 1015.3 |
| 20260503193049 | 65 | 350 | 1.0 | 11.0 | 0.00 | 0.00 | 0.00 | 27 | 1015.4 |
| 20260503193013 | 65 | 207 | 0.0 | 1.0 | 0.00 | 0.00 | 0.00 | 29 | 1015.3 |
| 20260503192919 | 65 | 355 | 0.0 | 1.0 | 0.00 | 0.00 | 0.00 | 31 | 1015.3 |
| 20260503192832 | 65 | 281 | 0.0 | 1.0 | 0.00 | 0.00 | 0.00 | 28 | 1015.3 |
| 20260503192717 | 65 | 344 | 0.0 | 1.0 | 0.00 | 0.00 | 0.00 | 26 | 1015.3 |
| 20260503192623 | 65 | 277 | 0.0 | 1.0 | 0.00 | 0.00 | 0.00 | 27 | 1015.3 |
| 20260503192509 | 65 | 244 | 0.0 | 1.0 | 0.00 | 0.00 | 0.00 | 26 | 1015.4 |
| 20260503192446 | 65 | 31 | 0.0 | 1.0 | 0.00 | 0.00 | 0.00 | 27 | 1015.4 |
| 20260503192311 | 65 | 31 | 0.0 | 1.0 | 0.00 | 0.00 | 0.00 | 29 | 1015.5 |
| 20260503192217 | 65 | 331 | 0.0 | 1.0 | 0.00 | 0.00 | 0.00 | 30 | 1015.5 |
| 20260503192123 | 65 | 225 | 0.0 | 0.0 | 0.00 | 0.00 | 0.00 | 29 | 1015.5 |
| 20260503192009 | 65 | 318 | 0.0 | 4.0 | 0.00 | 0.00 | 0.00 | 32 | 1015.5 |
| 20260503191922 | 65 | 292 | 0.0 | 4.0 | 0.00 | 0.00 | 0.00 | 31 | 1015.5 |
| 20260503191812 | 65 | 265 | 0.0 | 4.0 | 0.00 | 0.00 | 0.00 | 29 | 1015.6 |
| 20260503191718 | 64 | 40 | 0.0 | 4.0 | 0.00 | 0.00 | 0.00 | 28 | 1015.6 |
| 20260503191624 | 64 | 325 | 0.0 | 4.0 | 0.00 | 0.00 | 0.00 | 29 | 1015.6 |
| 20260503191541 | 64 | 96 | 0.0 | 4.0 | 0.00 | 0.00 | 0.00 | 30 | 1015.8 |
| 20260503191510 | 64 | 32 | 0.0 | 4.0 | 0.00 | 0.00 | 0.00 | 30 | 1015.7 |
| 20260503191416 | 64 | 317 | 0.0 | 4.0 | 0.00 | 0.00 | 0.00 | 28 | 1015.7 |
| 20260503191333 | 64 | 313 | 0.0 | 4.0 | 0.00 | 0.00 | 0.00 | 29 | 1015.6 |
| 20260503191238 | 64 | 284 | 0.0 | 4.0 | 0.00 | 0.00 | 0.00 | 28 | 1015.7 |
| 20260503191130 | 64 | 297 | 0.0 | 4.0 | 0.00 | 0.00 | 0.00 | 31 | 1015.7 |
| 20260503191015 | 64 | 330 | 0.0 | 9.0 | 0.00 | 0.00 | 0.00 | 30 | 1015.7 |
| 20260503190922 | 64 | 327 | 0.0 | 9.0 | 0.00 | 0.00 | 0.00 | 30 | 1015.7 |
| 20260503190828 | 64 | 329 | 0.0 | 9.0 | 0.00 | 0.00 | 0.00 | 28 | 1015.8 |
| 20260503190718 | 64 | 5 | 0.0 | 9.0 | 0.00 | 0.00 | 0.00 | 28 | 1015.8 |
| 20260503190631 | 64 | 52 | 0.0 | 9.0 | 0.00 | 0.00 | 0.00 | 27 | 1015.8 |
| 20260503190510 | 64 | 284 | 0.0 | 9.0 | 0.00 | 0.00 | 0.00 | 28 | 1015.9 |
| 20260503190443 | 64 | 311 | 0.0 | 9.0 | 0.00 | 0.00 | 0.00 | 30 | 1015.9 |
| 20260503190328 | 64 | 86 | 1.0 | 9.0 | 0.00 | 0.00 | 0.00 | 29 | 1015.9 |
| 20260503190214 | 64 | 330 | 1.0 | 9.0 | 0.00 | 0.00 | 0.00 | 31 | 1015.9 |
| 20260503190130 | 64 | 322 | 0.0 | 4.0 | 0.00 | 0.00 | 0.00 | 30 | 1015.9 |
| 20260503190014 | 64 | 320 | 0.0 | 6.0 | 0.00 | 0.00 | 0.00 | 31 | 1015.9 |
| 20260503190004 | 63 | 5 | 0.0 | 6.0 | 0.00 | 0.00 | 0.00 | 31 | 1016.0 |
| 20260503185916 | 64 | 242 | 0.0 | 6.0 | 0.00 | 0.00 | 0.00 | 30 | 1015.9 |
| 20260503185822 | 64 | 213 | 0.0 | 6.0 | 0.00 | 0.00 | 0.00 | 30 | 1015.9 |
| 20260503185737 | 64 | 215 | 0.0 | 6.0 | 0.00 | 0.00 | 0.00 | 28 | 1015.9 |
| 20260503185615 | 64 | 79 | 0.0 | 6.0 | 0.00 | 0.00 | 0.00 | 29 | 1016.0 |
| 20260503185531 | 64 | 335 | 0.0 | 6.0 | 0.00 | 0.00 | 0.00 | 31 | 1016.0 |
| 20260503185417 | 64 | 123 | 0.0 | 6.0 | 0.00 | 0.00 | 0.00 | 32 | 1016.1 |
| 20260503185323 | 63 | 225 | 0.0 | 6.0 | 0.00 | 0.00 | 0.00 | 34 | 1016.1 |
| 20260503185209 | 63 | 320 | 0.0 | 6.0 | 0.00 | 0.00 | 0.00 | 28 | 1016.1 |
| 20260503185115 | 64 | 46 | 0.0 | 4.0 | 0.00 | 0.00 | 0.00 | 28 | 1016.0 |
| 20260503185033 | 64 | 34 | 0.0 | 4.0 | 0.00 | 0.00 | 0.00 | 29 | 1016.0 |
| 20260503184919 | 64 | 27 | 0.0 | 4.0 | 0.00 | 0.00 | 0.00 | 29 | 1016.1 |
| 20260503184824 | 64 | 336 | 0.0 | 4.0 | 0.00 | 0.00 | 0.00 | 32 | 1016.1 |
| 20260503184730 | 64 | 273 | 0.0 | 4.0 | 0.00 | 0.00 | 0.00 | 31 | 1016.1 |
| 20260503184615 | 64 | 360 | 0.0 | 4.0 | 0.00 | 0.00 | 0.00 | 30 | 1016.2 |
| 20260503184528 | 64 | 300 | 0.0 | 1.0 | 0.00 | 0.00 | 0.00 | 30 | 1016.2 |
| 20260503184511 | 63 | 292 | 0.0 | 1.0 | 0.00 | 0.00 | 0.00 | 32 | 1016.4 |
| 20260503184418 | 63 | 36 | 0.0 | 1.0 | 0.00 | 0.00 | 0.00 | 29 | 1016.3 |
| 20260503184324 | 63 | 308 | 0.0 | 1.0 | 0.00 | 0.00 | 0.00 | 31 | 1016.3 |
| 20260503184210 | 63 | 16 | 0.0 | 1.0 | 0.00 | 0.00 | 0.00 | 28 | 1016.4 |
| 20260503184116 | 63 | 323 | 0.0 | 2.0 | 0.00 | 0.00 | 0.00 | 28 | 1016.4 |
| 20260503184022 | 63 | 274 | 0.0 | 3.0 | 0.00 | 0.00 | 0.00 | 29 | 1016.4 |
| 20260503183912 | 63 | 302 | 0.0 | 3.0 | 0.00 | 0.00 | 0.00 | 34 | 1016.3 |
| 20260503183825 | 63 | 319 | 0.0 | 3.0 | 0.00 | 0.00 | 0.00 | 35 | 1016.3 |
| 20260503183711 | 63 | 38 | 0.0 | 5.0 | 0.00 | 0.00 | 0.00 | 31 | 1016.4 |
| 20260503183617 | 63 | 44 | 0.0 | 5.0 | 0.00 | 0.00 | 0.00 | 29 | 1016.4 |
| 20260503183550 | 63 | 348 | 0.0 | 5.0 | 0.00 | 0.00 | 0.00 | 28 | 1016.4 |
| 20260503183415 | 63 | 315 | 0.0 | 5.0 | 0.00 | 0.00 | 0.00 | 29 | 1016.4 |
| 20260503183325 | 63 | 238 | 0.0 | 5.0 | 0.00 | 0.00 | 0.00 | 32 | 1016.4 |
| 20260503183211 | 63 | 5 | 0.0 | 7.0 | 0.00 | 0.00 | 0.00 | 34 | 1016.5 |
| 20260503183117 | 63 | 72 | 0.0 | 7.0 | 0.00 | 0.00 | 0.00 | 31 | 1016.5 |
| 20260503183033 | 62 | 53 | 0.0 | 7.0 | 0.00 | 0.00 | 0.00 | 29 | 1016.6 |
| 20260503183023 | 63 | 82 | 0.0 | 7.0 | 0.00 | 0.00 | 0.00 | 29 | 1016.5 |
| 20260503182909 | 63 | 323 | 0.0 | 7.0 | 0.00 | 0.00 | 0.00 | 30 | 1016.5 |
| 20260503182822 | 63 | 321 | 0.0 | 7.0 | 0.00 | 0.00 | 0.00 | 30 | 1016.5 |
| 20260503182712 | 63 | 290 | 1.0 | 7.0 | 0.00 | 0.00 | 0.00 | 30 | 1016.5 |
| 20260503182638 | 63 | 317 | 2.0 | 7.0 | 0.00 | 0.00 | 0.00 | 31 | 1016.5 |
| 20260503182530 | 63 | 275 | 1.0 | 7.0 | 0.00 | 0.00 | 0.00 | 30 | 1016.5 |
| 20260503182416 | 63 | 11 | 1.0 | 6.0 | 0.00 | 0.00 | 0.00 | 31 | 1016.4 |
| 20260503182322 | 63 | 234 | 1.0 | 6.0 | 0.00 | 0.00 | 0.00 | 30 | 1016.4 |
| 20260503182211 | 63 | 14 | 0.0 | 4.0 | 0.00 | 0.00 | 0.00 | 36 | 1016.3 |
| 20260503182146 | 63 | 275 | 0.0 | 4.0 | 0.00 | 0.00 | 0.00 | 38 | 1016.3 |
| 20260503182030 | 62 | 277 | 0.0 | 0.0 | 0.00 | 0.00 | 0.00 | 32 | 1016.3 |
| 20260503181915 | 62 | 43 | 0.0 | 0.0 | 0.00 | 0.00 | 0.00 | 30 | 1016.3 |
| 20260503181821 | 63 | 40 | 0.0 | 0.0 | 0.00 | 0.00 | 0.00 | 29 | 1016.3 |
| 20260503181727 | 63 | 302 | 0.0 | 0.0 | 0.00 | 0.00 | 0.00 | 29 | 1016.3 |
| 20260503181617 | 63 | 343 | 0.0 | 0.0 | 0.00 | 0.00 | 0.00 | 32 | 1016.3 |
| 20260503181530 | 62 | 29 | 0.0 | 0.0 | 0.00 | 0.00 | 0.00 | 33 | 1016.3 |
| 20260503181518 | 62 | 132 | 0.0 | 0.0 | 0.00 | 0.00 | 0.00 | 33 | 1016.4 |
| 20260503181416 | 62 | 287 | 0.0 | 0.0 | 0.00 | 0.00 | 0.00 | 34 | 1016.3 |
| 20260503181322 | 62 | 67 | 0.0 | 0.0 | 0.00 | 0.00 | 0.00 | 32 | 1016.3 |
| 20260503181229 | 62 | 360 | 0.0 | 0.0 | 0.00 | 0.00 | 0.00 | 32 | 1016.3 |
| 20260503181114 | 62 | 331 | 0.0 | 0.0 | 0.00 | 0.00 | 0.00 | 32 | 1016.4 |
| 20260503181024 | 62 | 246 | 0.0 | 0.0 | 0.00 | 0.00 | 0.00 | 32 | 1016.4 |
| 20260503180910 | 62 | 236 | 0.0 | 3.0 | 0.00 | 0.00 | 0.00 | 30 | 1016.4 |
| 20260503180823 | 62 | 273 | 0.0 | 4.0 | 0.00 | 0.00 | 0.00 | 30 | 1016.4 |
| 20260503180749 | 62 | 296 | 0.0 | 4.0 | 0.00 | 0.00 | 0.00 | 31 | 1016.4 |
| 20260503180615 | 62 | 294 | 0.0 | 4.0 | 0.00 | 0.00 | 0.00 | 31 | 1016.6 |
| 20260503180521 | 62 | 46 | 0.0 | 4.0 | 0.00 | 0.00 | 0.00 | 33 | 1016.6 |
| 20260503180411 | 62 | 56 | 0.0 | 4.0 | 0.00 | 0.00 | 0.00 | 30 | 1016.6 |
| 20260503180324 | 62 | 86 | 0.0 | 4.0 | 0.00 | 0.00 | 0.00 | 30 | 1016.6 |
| 20260503180230 | 62 | 334 | 0.0 | 4.0 | 0.00 | 0.00 | 0.00 | 31 | 1016.7 |
| 20260503180115 | 62 | 248 | 0.0 | 4.0 | 0.00 | 0.00 | 0.00 | 34 | 1016.7 |
| 20260503180028 | 62 | 111 | 0.0 | 4.0 | 0.00 | 0.00 | 0.00 | 35 | 1016.7 |
| 20260503180024 | 62 | 243 | 0.0 | 4.0 | 0.00 | 0.00 | 0.00 | 35 | 1016.7 |
| 20260503175918 | 62 | 178 | 0.0 | 0.0 | 0.00 | 0.00 | 0.00 | 31 | 1016.6 |
| 20260503175824 | 62 | 223 | 0.0 | 1.0 | 0.00 | 0.00 | 0.00 | 33 | 1016.6 |
| 20260503175710 | 62 | 49 | 0.0 | 2.0 | 0.00 | 0.00 | 0.00 | 32 | 1016.6 |
| 20260503175616 | 62 | 15 | 0.0 | 2.0 | 0.00 | 0.00 | 0.00 | 30 | 1016.7 |
| 20260503175522 | 62 | 58 | 0.0 | 2.0 | 0.00 | 0.00 | 0.00 | 31 | 1016.7 |
| 20260503175435 | 62 | 214 | 0.0 | 2.0 | 0.00 | 0.00 | 0.00 | 32 | 1016.7 |
| 20260503175325 | 62 | 278 | 0.0 | 2.0 | 0.00 | 0.00 | 0.00 | 32 | 1016.7 |
| 20260503175231 | 62 | 331 | 0.0 | 8.0 | 0.00 | 0.00 | 0.00 | 32 | 1016.7 |
| 20260503175116 | 62 | 90 | 0.0 | 8.0 | 0.00 | 0.00 | 0.00 | 32 | 1016.7 |
| 20260503175029 | 62 | 290 | 0.0 | 8.0 | 0.00 | 0.00 | 0.00 | 32 | 1016.7 |
| 20260503174915 | 62 | 24 | 0.0 | 8.0 | 0.00 | 0.00 | 0.00 | 32 | 1016.7 |
| 20260503174821 | 62 | 251 | 0.0 | 8.0 | 0.00 | 0.00 | 0.00 | 32 | 1016.7 |
| 20260503174731 | 62 | 321 | 0.0 | 8.0 | 0.00 | 0.00 | 0.00 | 32 | 1016.6 |
| 20260503174644 | 62 | 327 | 0.0 | 8.0 | 0.00 | 0.00 | 0.00 | 35 | 1016.6 |
| 20260503174556 | 61 | 29 | 0.0 | 8.0 | 0.00 | 0.00 | 0.00 | 35 | 1016.7 |
| 20260503174528 | 62 | 332 | 1.0 | 8.0 | 0.00 | 0.00 | 0.00 | 36 | 1016.7 |
| 20260503174414 | 62 | 293 | 1.0 | 8.0 | 0.00 | 0.00 | 0.00 | 31 | 1016.7 |
| 20260503174320 | 62 | 326 | 0.0 | 4.0 | 0.00 | 0.00 | 0.00 | 33 | 1016.7 |
| 20260503174233 | 61 | 316 | 0.0 | 4.0 | 0.00 | 0.00 | 0.00 | 35 | 1016.7 |
| 20260503174123 | 61 | 75 | 0.0 | 4.0 | 0.00 | 0.00 | 0.00 | 33 | 1016.7 |
| 20260503174046 | 62 | 164 | 0.0 | 4.0 | 0.00 | 0.00 | 0.00 | 31 | 1016.7 |
| 20260503173938 | 62 | 324 | 0.0 | 4.0 | 0.00 | 0.00 | 0.00 | 33 | 1016.7 |
| 20260503173823 | 62 | 355 | 1.0 | 4.0 | 0.00 | 0.00 | 0.00 | 34 | 1016.7 |
| 20260503173729 | 62 | 271 | 1.0 | 4.0 | 0.00 | 0.00 | 0.00 | 33 | 1016.6 |
| 20260503173614 | 61 | 282 | 0.0 | 0.0 | 0.00 | 0.00 | 0.00 | 33 | 1016.7 |
| 20260503173524 | 61 | 326 | 0.0 | 0.0 | 0.00 | 0.00 | 0.00 | 36 | 1016.7 |
| 20260503173438 | 61 | 355 | 0.0 | 0.0 | 0.00 | 0.00 | 0.00 | 37 | 1016.7 |
| 20260503173323 | 61 | 16 | 0.0 | 0.0 | 0.00 | 0.00 | 0.00 | 33 | 1016.7 |
| 20260503173228 | 61 | 55 | 0.0 | 0.0 | 0.00 | 0.00 | 0.00 | 34 | 1016.7 |
| 20260503173136 | 60 | 24 | 0.0 | 0.0 | 0.00 | 0.00 | 0.00 | 33 | 1016.8 |
| 20260503173114 | 61 | 23 | 0.0 | 0.0 | 0.00 | 0.00 | 0.00 | 33 | 1016.8 |
| 20260503173048 | 61 | 315 | 0.0 | 0.0 | 0.00 | 0.00 | 0.00 | 32 | 1016.8 |
| 20260503172917 | 61 | 274 | 0.0 | 0.0 | 0.00 | 0.00 | 0.00 | 34 | 1016.8 |
| 20260503172823 | 61 | 281 | 0.0 | 0.0 | 0.00 | 0.00 | 0.00 | 33 | 1016.8 |
| 20260503172709 | 61 | 331 | 0.0 | 0.0 | 0.00 | 0.00 | 0.00 | 33 | 1016.8 |
| 20260503172615 | 61 | 350 | 0.0 | 0.0 | 0.00 | 0.00 | 0.00 | 34 | 1016.8 |
| 20260503172529 | 61 | 278 | 0.0 | 1.0 | 0.00 | 0.00 | 0.00 | 35 | 1016.8 |
| 20260503172414 | 61 | 32 | 0.0 | 8.0 | 0.00 | 0.00 | 0.00 | 34 | 1016.8 |
| 20260503172344 | 61 | 341 | 0.0 | 8.0 | 0.00 | 0.00 | 0.00 | 37 | 1016.8 |
| 20260503172210 | 61 | 15 | 0.0 | 8.0 | 0.00 | 0.00 | 0.00 | 35 | 1016.8 |
| 20260503172123 | 61 | 294 | 0.0 | 8.0 | 0.00 | 0.00 | 0.00 | 34 | 1016.8 |
| 20260503172009 | 61 | 360 | 0.0 | 8.0 | 0.00 | 0.00 | 0.00 | 33 | 1016.9 |
| 20260503171915 | 61 | 297 | 0.0 | 8.0 | 0.00 | 0.00 | 0.00 | 34 | 1016.9 |
| 20260503171821 | 61 | 37 | 0.0 | 8.0 | 0.00 | 0.00 | 0.00 | 33 | 1016.9 |
| 20260503171711 | 61 | 355 | 1.0 | 8.0 | 0.00 | 0.00 | 0.00 | 33 | 1016.9 |
| 20260503171617 | 61 | 309 | 1.0 | 8.0 | 0.00 | 0.00 | 0.00 | 37 | 1016.9 |
| 20260503171530 | 61 | 321 | 0.0 | 3.0 | 0.00 | 0.00 | 0.00 | 34 | 1016.9 |
| 20260503171513 | 61 | 20 | 0.0 | 3.0 | 0.00 | 0.00 | 0.00 | 34 | 1017.0 |
| 20260503171416 | 61 | 324 | 0.0 | 3.0 | 0.00 | 0.00 | 0.00 | 31 | 1017.0 |
| 20260503171342 | 61 | 300 | 0.0 | 3.0 | 0.00 | 0.00 | 0.00 | 32 | 1017.0 |
| 20260503171211 | 61 | 326 | 0.0 | 3.0 | 0.00 | 0.00 | 0.00 | 34 | 1017.2 |
| 20260503171124 | 61 | 339 | 0.0 | 6.0 | 0.00 | 0.00 | 0.00 | 37 | 1017.2 |
| 20260503171030 | 61 | 317 | 0.0 | 6.0 | 0.00 | 0.00 | 0.00 | 37 | 1017.1 |
| 20260503170916 | 60 | 329 | 0.0 | 6.0 | 0.00 | 0.00 | 0.00 | 36 | 1017.1 |
| 20260503170822 | 60 | 37 | 0.0 | 6.0 | 0.00 | 0.00 | 0.00 | 34 | 1017.1 |
| 20260503170728 | 60 | 300 | 0.0 | 6.0 | 0.00 | 0.00 | 0.00 | 37 | 1017.1 |
| 20260503170618 | 60 | 226 | 0.0 | 6.0 | 0.00 | 0.00 | 0.00 | 34 | 1017.2 |
| 20260503170531 | 60 | 277 | 0.0 | 6.0 | 0.00 | 0.00 | 0.00 | 34 | 1017.2 |
| 20260503170417 | 60 | 214 | 1.0 | 6.0 | 0.00 | 0.00 | 0.00 | 35 | 1017.2 |
| 20260503170323 | 60 | 236 | 1.0 | 6.0 | 0.00 | 0.00 | 0.00 | 34 | 1017.2 |
| 20260503170209 | 60 | 355 | 0.0 | 0.0 | 0.00 | 0.00 | 0.00 | 35 | 1017.3 |
| 20260503170119 | 60 | 284 | 0.0 | 0.0 | 0.00 | 0.00 | 0.00 | 32 | 1017.3 |
| 20260503160213 | 58 | 33 | 0.0 | 9.0 | 0.00 | 0.00 | 0.00 | 38 | 1018.0 |
| 20260503160147 | 57 | 312 | 0.0 | 9.0 | 0.00 | 0.00 | 0.00 | 38 | 1018.0 |
| 20260503160111 | 57 | 329 | 0.0 | 9.0 | 0.00 | 0.00 | 0.00 | 38 | 1018.2 |
| 20260503150921 | 56 | 46 | 3.0 | 9.0 | 0.00 | 0.00 | 0.00 | 37 | 1018.7 |
| 20260503150827 | 56 | 333 | 1.0 | 9.0 | 0.00 | 0.00 | 0.00 | 41 | 1018.7 |
| 20260503150713 | 56 | 269 | 0.0 | 9.0 | 0.00 | 0.00 | 0.00 | 36 | 1018.7 |
| 20260503150620 | 56 | 301 | 0.0 | 9.0 | 0.00 | 0.00 | 0.00 | 37 | 1018.7 |
| 20260503150532 | 56 | 286 | 0.0 | 9.0 | 0.00 | 0.00 | 0.00 | 38 | 1018.7 |
| 20260503150419 | 56 | 334 | 0.0 | 9.0 | 0.00 | 0.00 | 0.00 | 38 | 1018.8 |
| 20260503150329 | 56 | 263 | 0.0 | 9.0 | 0.00 | 0.00 | 0.00 | 38 | 1018.8 |
| 20260503150214 | 56 | 313 | 1.0 | 9.0 | 0.00 | 0.00 | 0.00 | 40 | 1018.8 |
| 20260503150120 | 56 | 49 | 1.0 | 9.0 | 0.00 | 0.00 | 0.00 | 41 | 1018.8 |
| 20260503140313 | 54 | 37 | 0.0 | 5.0 | 0.00 | 0.00 | 0.00 | 40 | 1018.7 |
| 20260503140219 | 54 | 240 | 0.0 | 5.0 | 0.00 | 0.00 | 0.00 | 41 | 1018.7 |
| 20260503140109 | 53 | 55 | 0.0 | 5.0 | 0.00 | 0.00 | 0.00 | 44 | 1018.7 |
| 20260503131313 | 51 | 96 | 0.0 | 4.0 | 0.00 | 0.00 | 0.00 | 46 | 1018.5 |
| 20260503131226 | 51 | 178 | 0.0 | 4.0 | 0.00 | 0.00 | 0.00 | 50 | 1018.5 |
| 20260503131112 | 51 | 283 | 0.0 | 4.0 | 0.00 | 0.00 | 0.00 | 46 | 1018.5 |
| 20260503131038 | 51 | 312 | 0.0 | 4.0 | 0.00 | 0.00 | 0.00 | 45 | 1018.5 |
| 20260503130930 | 51 | 10 | 0.0 | 4.0 | 0.00 | 0.00 | 0.00 | 45 | 1018.5 |
| 20260503130820 | 51 | 76 | 0.0 | 4.0 | 0.00 | 0.00 | 0.00 | 47 | 1018.5 |
| 20260503130726 | 51 | 306 | 0.0 | 4.0 | 0.00 | 0.00 | 0.00 | 46 | 1018.5 |
| 20260503130612 | 51 | 5 | 0.0 | 1.0 | 0.00 | 0.00 | 0.00 | 48 | 1018.6 |
| 20260503130514 | 51 | 32 | 0.0 | 1.0 | 0.00 | 0.00 | 0.00 | 48 | 1018.6 |
| 20260503130421 | 51 | 315 | 0.0 | 1.0 | 0.00 | 0.00 | 0.00 | 49 | 1018.6 |
| 20260503130310 | 51 | 275 | 0.0 | 3.0 | 0.00 | 0.00 | 0.00 | 48 | 1018.7 |
| 20260503130223 | 50 | 79 | 0.0 | 3.0 | 0.00 | 0.00 | 0.00 | 47 | 1018.7 |
| 20260503130110 | 50 | 231 | 0.0 | 3.0 | 0.00 | 0.00 | 0.00 | 48 | 1018.6 |
| 20260503120139 | 46 | 10 | 0.0 | 0.0 | 0.00 | 0.00 | 0.00 | 59 | 1018.4 |
| 20260503120109 | 46 | 10 | 0.0 | 0.0 | 0.00 | 0.00 | 0.00 | 59 | 1018.5 |
| 20260503110815 | 44 | 309 | 0.0 | 0.0 | 0.00 | 0.00 | 0.00 | 62 | 1017.9 |
| 20260503110728 | 44 | 309 | 0.0 | 0.0 | 0.00 | 0.00 | 0.00 | 62 | 1017.9 |
| 20260503110634 | 45 | 67 | 0.0 | 0.0 | 0.00 | 0.00 | 0.00 | 61 | 1017.9 |
| 20260503110524 | 45 | 78 | 0.0 | 0.0 | 0.00 | 0.00 | 0.00 | 61 | 1017.9 |
| 20260503110410 | 45 | 48 | 0.0 | 0.0 | 0.00 | 0.00 | 0.00 | 62 | 1017.8 |
| 20260503110316 | 45 | 320 | 0.0 | 0.0 | 0.00 | 0.00 | 0.00 | 62 | 1017.7 |
| 20260503110222 | 45 | 262 | 0.0 | 1.0 | 0.00 | 0.00 | 0.00 | 62 | 1017.7 |
| 20260503110135 | 45 | 306 | 0.0 | 1.0 | 0.00 | 0.00 | 0.00 | 61 | 1017.7 |
| 20260503100240 | 45 | 32 | 0.0 | 2.0 | 0.00 | 0.00 | 0.00 | 64 | 1016.3 |
| 20260503100109 | 45 | 285 | 0.0 | 2.0 | 0.00 | 0.00 | 0.00 | 63 | 1016.3 |
| 20260503090410 | 47 | 313 | 0.0 | 8.0 | 0.00 | 0.00 | 0.00 | 59 | 1015.8 |
| 20260503090321 | 47 | 298 | 1.0 | 8.0 | 0.00 | 0.00 | 0.00 | 59 | 1015.8 |
| 20260503090226 | 47 | 323 | 2.0 | 8.0 | 0.00 | 0.00 | 0.00 | 59 | 1015.8 |
| 20260503090113 | 47 | 329 | 1.0 | 8.0 | 0.00 | 0.00 | 0.00 | 60 | 1015.8 |
| 20260503081622 | 44 | 286 | 0.0 | 0.0 | 0.00 | 0.00 | 0.00 | 74 | 1015.5 |
| 20260503081605 | 44 | 286 | 0.0 | 0.0 | 0.00 | 0.00 | 0.00 | 74 | 1015.5 |
| 20260503081528 | 44 | 293 | 0.0 | 0.0 | 0.00 | 0.00 | 0.00 | 76 | 1015.5 |
| 20260503081414 | 44 | 293 | 0.0 | 0.0 | 0.00 | 0.00 | 0.00 | 76 | 1015.4 |
| 20260503081320 | 44 | 292 | 0.0 | 0.0 | 0.00 | 0.00 | 0.00 | 78 | 1015.4 |
| 20260503081226 | 44 | 293 | 0.0 | 0.0 | 0.00 | 0.00 | 0.00 | 78 | 1015.5 |
| 20260503081139 | 44 | 293 | 0.0 | 0.0 | 0.00 | 0.00 | 0.00 | 79 | 1015.4 |
| 20260503081028 | 44 | 293 | 0.0 | 0.0 | 0.00 | 0.00 | 0.00 | 80 | 1015.4 |
| 20260503080914 | 44 | 293 | 0.0 | 0.0 | 0.00 | 0.00 | 0.00 | 80 | 1015.4 |
| 20260503080820 | 44 | 293 | 0.0 | 0.0 | 0.00 | 0.00 | 0.00 | 79 | 1015.4 |
| 20260503080733 | 44 | 207 | 0.0 | 0.0 | 0.00 | 0.00 | 0.00 | 81 | 1015.4 |
| 20260503080618 | 44 | 207 | 0.0 | 0.0 | 0.00 | 0.00 | 0.00 | 80 | 1015.4 |
| 20260503080528 | 44 | 207 | 0.0 | 0.0 | 0.00 | 0.00 | 0.00 | 80 | 1015.4 |
| 20260503080414 | 44 | 207 | 0.0 | 0.0 | 0.00 | 0.00 | 0.00 | 80 | 1015.4 |
| 20260503080321 | 44 | 207 | 0.0 | 0.0 | 0.00 | 0.00 | 0.00 | 79 | 1015.4 |
| 20260503080226 | 44 | 207 | 0.0 | 0.0 | 0.00 | 0.00 | 0.00 | 77 | 1015.4 |
| 20260503080112 | 44 | 207 | 0.0 | 0.0 | 0.00 | 0.00 | 0.00 | 76 | 1015.3 |
| 20260503072931 | 43 | 209 | 0.0 | 0.0 | 0.00 | 0.00 | 0.00 | 76 | 1015.2 |
| 20260503072817 | 43 | 209 | 0.0 | 0.0 | 0.00 | 0.00 | 0.00 | 76 | 1015.2 |
| 20260503072723 | 43 | 209 | 0.0 | 0.0 | 0.00 | 0.00 | 0.00 | 76 | 1015.2 |
| 20260503072613 | 43 | 209 | 0.0 | 0.0 | 0.00 | 0.00 | 0.00 | 76 | 1015.1 |
| 20260503072519 | 43 | 209 | 0.0 | 0.0 | 0.00 | 0.00 | 0.00 | 76 | 1015.1 |
| 20260503072432 | 43 | 209 | 0.0 | 0.0 | 0.00 | 0.00 | 0.00 | 73 | 1015.1 |
| 20260503072318 | 43 | 100 | 0.0 | 0.0 | 0.00 | 0.00 | 0.00 | 75 | 1015.1 |
| 20260503072224 | 43 | 199 | 0.0 | 0.0 | 0.00 | 0.00 | 0.00 | 75 | 1015.1 |
| 20260503072110 | 43 | 199 | 0.0 | 0.0 | 0.00 | 0.00 | 0.00 | 74 | 1015.1 |
| 20260503072020 | 43 | 199 | 0.0 | 0.0 | 0.00 | 0.00 | 0.00 | 73 | 1015.1 |
| 20260503071926 | 43 | 199 | 0.0 | 0.0 | 0.00 | 0.00 | 0.00 | 73 | 1015.1 |
| 20260503071811 | 43 | 199 | 0.0 | 0.0 | 0.00 | 0.00 | 0.00 | 73 | 1015.0 |
| 20260503071725 | 43 | 285 | 0.0 | 1.0 | 0.00 | 0.00 | 0.00 | 73 | 1015.0 |
| 20260503071611 | 43 | 285 | 0.0 | 1.0 | 0.00 | 0.00 | 0.00 | 73 | 1015.0 |
| 20260503071605 | 43 | 285 | 0.0 | 1.0 | 0.00 | 0.00 | 0.00 | 73 | 1015.1 |
| 20260503071520 | 43 | 285 | 0.0 | 1.0 | 0.00 | 0.00 | 0.00 | 73 | 1015.0 |
| 20260503071427 | 43 | 285 | 0.0 | 1.0 | 0.00 | 0.00 | 0.00 | 73 | 1015.0 |
| 20260503071313 | 44 | 31 | 0.0 | 1.0 | 0.00 | 0.00 | 0.00 | 73 | 1015.0 |
| 20260503071219 | 44 | 17 | 0.0 | 1.0 | 0.00 | 0.00 | 0.00 | 73 | 1015.0 |
| 20260503071132 | 44 | 192 | 0.0 | 1.0 | 0.00 | 0.00 | 0.00 | 71 | 1014.9 |
| 20260503071017 | 44 | 186 | 0.0 | 1.0 | 0.00 | 0.00 | 0.00 | 72 | 1015.0 |
| 20260503070927 | 44 | 163 | 0.0 | 1.0 | 0.00 | 0.00 | 0.00 | 72 | 1015.0 |
| 20260503070813 | 44 | 300 | 0.0 | 0.0 | 0.00 | 0.00 | 0.00 | 72 | 1014.9 |
| 20260503070726 | 44 | 300 | 0.0 | 0.0 | 0.00 | 0.00 | 0.00 | 72 | 1014.9 |
| 20260503070612 | 44 | 300 | 0.0 | 0.0 | 0.00 | 0.00 | 0.00 | 73 | 1014.9 |
| 20260503070518 | 44 | 300 | 0.0 | 0.0 | 0.00 | 0.00 | 0.00 | 72 | 1014.9 |
| 20260503070424 | 44 | 300 | 0.0 | 0.0 | 0.00 | 0.00 | 0.00 | 71 | 1014.9 |
| 20260503070314 | 43 | 300 | 0.0 | 0.0 | 0.00 | 0.00 | 0.00 | 71 | 1014.8 |
| 20260503070220 | 43 | 300 | 0.0 | 0.0 | 0.00 | 0.00 | 0.00 | 71 | 1014.8 |
| 20260503070133 | 43 | 300 | 0.0 | 0.0 | 0.00 | 0.00 | 0.00 | 72 | 1014.8 |
| 20260503060311 | 45 | 323 | 0.0 | 3.0 | 0.00 | 0.00 | 0.00 | 69 | 1014.6 |
| 20260503060224 | 45 | 323 | 0.0 | 3.0 | 0.00 | 0.00 | 0.00 | 68 | 1014.6 |
| 20260503060131 | 45 | 316 | 0.0 | 3.0 | 0.00 | 0.00 | 0.00 | 67 | 1014.6 |
| 20260503055110 | 46 | 315 | 0.0 | 0.0 | 0.00 | 0.00 | 0.00 | 68 | 1014.6 |
| 20260503055016 | 46 | 315 | 0.0 | 0.0 | 0.00 | 0.00 | 0.00 | 68 | 1014.6 |
| 20260503054922 | 46 | 302 | 0.0 | 0.0 | 0.00 | 0.00 | 0.00 | 67 | 1014.6 |
| 20260503054835 | 46 | 244 | 0.0 | 0.0 | 0.00 | 0.00 | 0.00 | 64 | 1014.6 |
| 20260503054740 | 47 | 244 | 0.0 | 0.0 | 0.00 | 0.00 | 0.00 | 64 | 1014.6 |
| 20260503054620 | 46 | 244 | 0.0 | 0.0 | 0.00 | 0.00 | 0.00 | 64 | 1014.6 |
| 20260503054609 | 47 | 244 | 0.0 | 0.0 | 0.00 | 0.00 | 0.00 | 64 | 1014.6 |
| 20260503054542 | 47 | 244 | 0.0 | 0.0 | 0.00 | 0.00 | 0.00 | 64 | 1014.6 |
| 20260503054427 | 47 | 244 | 0.0 | 0.0 | 0.00 | 0.00 | 0.00 | 64 | 1014.6 |
| 20260503054313 | 47 | 244 | 0.0 | 0.0 | 0.00 | 0.00 | 0.00 | 64 | 1014.6 |
| 20260503054226 | 47 | 244 | 0.0 | 0.0 | 0.00 | 0.00 | 0.00 | 66 | 1014.6 |
| 20260503054112 | 47 | 244 | 0.0 | 0.0 | 0.00 | 0.00 | 0.00 | 65 | 1014.5 |
| 20260503054021 | 47 | 244 | 0.0 | 0.0 | 0.00 | 0.00 | 0.00 | 65 | 1014.5 |
| 20260503053955 | 47 | 244 | 0.0 | 0.0 | 0.00 | 0.00 | 0.00 | 65 | 1014.5 |
| 20260503053813 | 47 | 244 | 0.0 | 0.0 | 0.00 | 0.00 | 0.00 | 64 | 1014.5 |
| 20260503053726 | 47 | 244 | 0.0 | 0.0 | 0.00 | 0.00 | 0.00 | 65 | 1014.5 |
| 20260503053613 | 47 | 244 | 0.0 | 0.0 | 0.00 | 0.00 | 0.00 | 65 | 1014.5 |
| 20260503053518 | 47 | 244 | 0.0 | 0.0 | 0.00 | 0.00 | 0.00 | 63 | 1014.5 |
| 20260503053428 | 47 | 244 | 0.0 | 0.0 | 0.00 | 0.00 | 0.00 | 63 | 1014.5 |
| 20260503053315 | 47 | 244 | 0.0 | 0.0 | 0.00 | 0.00 | 0.00 | 62 | 1014.5 |
| 20260503053227 | 47 | 244 | 0.0 | 0.0 | 0.00 | 0.00 | 0.00 | 62 | 1014.5 |
| 20260503053133 | 47 | 250 | 0.0 | 0.0 | 0.00 | 0.00 | 0.00 | 62 | 1014.5 |
| 20260503053107 | 47 | 302 | 0.0 | 0.0 | 0.00 | 0.00 | 0.00 | 62 | 1014.5 |
| 20260503053020 | 47 | 314 | 0.0 | 0.0 | 0.00 | 0.00 | 0.00 | 65 | 1014.5 |
| 20260503052930 | 47 | 314 | 0.0 | 0.0 | 0.00 | 0.00 | 0.00 | 63 | 1014.6 |
| 20260503052815 | 47 | 314 | 0.0 | 0.0 | 0.00 | 0.00 | 0.00 | 63 | 1014.6 |
| 20260503052728 | 47 | 314 | 0.0 | 0.0 | 0.00 | 0.00 | 0.00 | 63 | 1014.6 |
| 20260503052614 | 48 | 314 | 0.0 | 0.0 | 0.00 | 0.00 | 0.00 | 63 | 1014.6 |
| 20260503052520 | 48 | 314 | 0.0 | 0.0 | 0.00 | 0.00 | 0.00 | 64 | 1014.6 |
| 20260503052453 | 48 | 314 | 0.0 | 0.0 | 0.00 | 0.00 | 0.00 | 62 | 1014.5 |
| 20260503052322 | 48 | 314 | 0.0 | 0.0 | 0.00 | 0.00 | 0.00 | 62 | 1014.5 |
| 20260503052228 | 48 | 314 | 0.0 | 0.0 | 0.00 | 0.00 | 0.00 | 61 | 1014.5 |
| 20260503052114 | 48 | 314 | 0.0 | 0.0 | 0.00 | 0.00 | 0.00 | 60 | 1014.4 |
| 20260503052020 | 48 | 314 | 0.0 | 0.0 | 0.00 | 0.00 | 0.00 | 62 | 1014.4 |
| 20260503051926 | 48 | 314 | 0.0 | 0.0 | 0.00 | 0.00 | 0.00 | 62 | 1014.4 |
| 20260503051814 | 48 | 314 | 0.0 | 0.0 | 0.00 | 0.00 | 0.00 | 62 | 1014.4 |
| 20260503051730 | 48 | 314 | 0.0 | 2.0 | 0.00 | 0.00 | 0.00 | 62 | 1014.4 |
| 20260503051615 | 48 | 314 | 0.0 | 2.0 | 0.00 | 0.00 | 0.00 | 61 | 1014.4 |
| 20260503051543 | 48 | 314 | 0.0 | 2.0 | 0.00 | 0.00 | 0.00 | 61 | 1014.4 |
| 20260503051521 | 48 | 314 | 0.0 | 2.0 | 0.00 | 0.00 | 0.00 | 61 | 1014.4 |
| 20260503051434 | 48 | 314 | 0.0 | 2.0 | 0.00 | 0.00 | 0.00 | 61 | 1014.3 |
| 20260503051313 | 48 | 314 | 0.0 | 2.0 | 0.00 | 0.00 | 0.00 | 60 | 1014.3 |
| 20260503051226 | 48 | 314 | 0.0 | 2.0 | 0.00 | 0.00 | 0.00 | 60 | 1014.3 |
| 20260503051116 | 49 | 314 | 0.0 | 2.0 | 0.00 | 0.00 | 0.00 | 61 | 1014.3 |
| 20260503051022 | 49 | 314 | 0.0 | 2.0 | 0.00 | 0.00 | 0.00 | 60 | 1014.3 |
| 20260503050928 | 49 | 319 | 0.0 | 2.0 | 0.00 | 0.00 | 0.00 | 61 | 1014.3 |
| 20260503050815 | 49 | 298 | 0.0 | 2.0 | 0.00 | 0.00 | 0.00 | 60 | 1014.3 |
| 20260503050728 | 49 | 298 | 0.0 | 2.0 | 0.00 | 0.00 | 0.00 | 60 | 1014.3 |
| 20260503050618 | 49 | 298 | 0.0 | 2.0 | 0.00 | 0.00 | 0.00 | 60 | 1014.3 |
| 20260503050525 | 49 | 298 | 0.0 | 2.0 | 0.00 | 0.00 | 0.00 | 60 | 1014.3 |
| 20260503050411 | 49 | 250 | 0.0 | 6.0 | 0.00 | 0.00 | 0.00 | 60 | 1014.3 |
| 20260503050338 | 49 | 250 | 0.0 | 6.0 | 0.00 | 0.00 | 0.00 | 60 | 1014.3 |
| 20260503050230 | 49 | 250 | 0.0 | 6.0 | 0.00 | 0.00 | 0.00 | 60 | 1014.3 |
| 20260503050116 | 49 | 35 | 0.0 | 6.0 | 0.00 | 0.00 | 0.00 | 60 | 1014.4 |
| 20260503050026 | 49 | 306 | 0.0 | 6.0 | 0.00 | 0.00 | 0.00 | 59 | 1014.4 |
| 20260503045912 | 49 | 294 | 0.0 | 6.0 | 0.00 | 0.00 | 0.00 | 59 | 1014.3 |
| 20260503045845 | 49 | 294 | 1.0 | 6.0 | 0.00 | 0.00 | 0.00 | 58 | 1014.3 |
| 20260503045710 | 49 | 294 | 1.0 | 6.0 | 0.00 | 0.00 | 0.00 | 57 | 1014.3 |
| 20260503045617 | 49 | 269 | 0.0 | 4.0 | 0.00 | 0.00 | 0.00 | 59 | 1014.3 |
| 20260503045543 | 49 | 302 | 0.0 | 1.0 | 0.00 | 0.00 | 0.00 | 60 | 1014.3 |
| 20260503045419 | 49 | 302 | 0.0 | 1.0 | 0.00 | 0.00 | 0.00 | 58 | 1014.4 |
| 20260503045325 | 50 | 302 | 0.0 | 1.0 | 0.00 | 0.00 | 0.00 | 59 | 1014.4 |
| 20260503045211 | 50 | 302 | 0.0 | 1.0 | 0.00 | 0.00 | 0.00 | 59 | 1014.4 |
| 20260503045117 | 50 | 302 | 0.0 | 1.0 | 0.00 | 0.00 | 0.00 | 59 | 1014.3 |
| 20260503045022 | 50 | 315 | 0.0 | 0.0 | 0.00 | 0.00 | 0.00 | 59 | 1014.3 |
| 20260503044912 | 50 | 324 | 0.0 | 0.0 | 0.00 | 0.00 | 0.00 | 60 | 1014.3 |
| 20260503044826 | 50 | 333 | 0.0 | 0.0 | 0.00 | 0.00 | 0.00 | 57 | 1014.3 |
| 20260503044712 | 50 | 336 | 0.0 | 0.0 | 0.00 | 0.00 | 0.00 | 57 | 1014.3 |
| 20260503044617 | 50 | 336 | 0.0 | 0.0 | 0.00 | 0.00 | 0.00 | 57 | 1014.3 |
| 20260503044604 | 50 | 336 | 0.0 | 0.0 | 0.00 | 0.00 | 0.00 | 57 | 1014.3 |
| 20260503044523 | 50 | 336 | 0.0 | 0.0 | 0.00 | 0.00 | 0.00 | 57 | 1014.3 |
| 20260503044409 | 50 | 336 | 0.0 | 0.0 | 0.00 | 0.00 | 0.00 | 57 | 1014.3 |
| 20260503044319 | 50 | 336 | 0.0 | 0.0 | 0.00 | 0.00 | 0.00 | 56 | 1014.3 |
| 20260503044232 | 50 | 336 | 0.0 | 0.0 | 0.00 | 0.00 | 0.00 | 58 | 1014.3 |
| 20260503044119 | 50 | 336 | 0.0 | 0.0 | 0.00 | 0.00 | 0.00 | 55 | 1014.3 |
| 20260503044024 | 50 | 336 | 0.0 | 0.0 | 0.00 | 0.00 | 0.00 | 54 | 1014.4 |
| 20260503043910 | 51 | 336 | 0.0 | 0.0 | 0.00 | 0.00 | 0.00 | 54 | 1014.3 |
| 20260503043820 | 51 | 336 | 0.0 | 0.0 | 0.00 | 0.00 | 0.00 | 55 | 1014.3 |
| 20260503043734 | 51 | 336 | 0.0 | 3.0 | 0.00 | 0.00 | 0.00 | 56 | 1014.4 |
| 20260503043639 | 51 | 336 | 0.0 | 3.0 | 0.00 | 0.00 | 0.00 | 55 | 1014.4 |
| 20260503043541 | 51 | 336 | 0.0 | 3.0 | 0.00 | 0.00 | 0.00 | 55 | 1014.4 |
| 20260503043426 | 51 | 336 | 0.0 | 3.0 | 0.00 | 0.00 | 0.00 | 56 | 1014.4 |
| 20260503043339 | 51 | 44 | 0.0 | 3.0 | 0.00 | 0.00 | 0.00 | 54 | 1014.4 |
| 20260503043224 | 51 | 309 | 0.0 | 3.0 | 0.00 | 0.00 | 0.00 | 55 | 1014.3 |
| 20260503043134 | 51 | 309 | 0.0 | 3.0 | 0.00 | 0.00 | 0.00 | 54 | 1014.4 |
| 20260503043026 | 51 | 309 | 0.0 | 3.0 | 0.00 | 0.00 | 0.00 | 54 | 1014.4 |
| 20260503043013 | 50 | 309 | 0.0 | 3.0 | 0.00 | 0.00 | 0.00 | 52 | 1014.4 |
| 20260503042912 | 51 | 57 | 0.0 | 3.0 | 0.00 | 0.00 | 0.00 | 54 | 1014.4 |
| 20260503042818 | 51 | 34 | 0.0 | 0.0 | 0.00 | 0.00 | 0.00 | 55 | 1014.4 |
| 20260503042752 | 51 | 38 | 0.0 | 0.0 | 0.00 | 0.00 | 0.00 | 54 | 1014.4 |
| 20260503042609 | 51 | 355 | 0.0 | 0.0 | 0.00 | 0.00 | 0.00 | 55 | 1014.4 |
| 20260503042526 | 51 | 355 | 0.0 | 0.0 | 0.00 | 0.00 | 0.00 | 55 | 1014.4 |
| 20260503042432 | 51 | 266 | 0.0 | 0.0 | 0.00 | 0.00 | 0.00 | 54 | 1014.4 |
| 20260503042317 | 51 | 266 | 0.0 | 0.0 | 0.00 | 0.00 | 0.00 | 54 | 1014.4 |
| 20260503042230 | 51 | 239 | 0.0 | 0.0 | 0.00 | 0.00 | 0.00 | 54 | 1014.4 |
| 20260503042116 | 51 | 304 | 0.0 | 0.0 | 0.00 | 0.00 | 0.00 | 54 | 1014.4 |
| 20260503042022 | 51 | 315 | 0.0 | 0.0 | 0.00 | 0.00 | 0.00 | 54 | 1014.4 |
| 20260503041912 | 51 | 312 | 0.0 | 0.0 | 0.00 | 0.00 | 0.00 | 53 | 1014.4 |
| 20260503041818 | 51 | 338 | 0.0 | 0.0 | 0.00 | 0.00 | 0.00 | 54 | 1014.4 |
| 20260503041724 | 51 | 340 | 0.0 | 0.0 | 0.00 | 0.00 | 0.00 | 54 | 1014.4 |
| 20260503041624 | 51 | 319 | 0.0 | 0.0 | 0.00 | 0.00 | 0.00 | 55 | 1014.4 |
| 20260503041610 | 51 | 319 | 0.0 | 0.0 | 0.00 | 0.00 | 0.00 | 55 | 1014.4 |
| 20260503041543 | 51 | 319 | 0.0 | 0.0 | 0.00 | 0.00 | 0.00 | 55 | 1014.4 |
| 20260503041412 | 51 | 322 | 0.0 | 0.0 | 0.00 | 0.00 | 0.00 | 55 | 1014.3 |
| 20260503041318 | 51 | 322 | 0.0 | 0.0 | 0.00 | 0.00 | 0.00 | 54 | 1014.3 |
| 20260503041231 | 51 | 320 | 0.0 | 0.0 | 0.00 | 0.00 | 0.00 | 54 | 1014.3 |
| 20260503041117 | 51 | 315 | 0.0 | 2.0 | 0.00 | 0.00 | 0.00 | 54 | 1014.3 |
| 20260503041023 | 51 | 315 | 0.0 | 2.0 | 0.00 | 0.00 | 0.00 | 53 | 1014.3 |
| 20260503040929 | 51 | 307 | 0.0 | 2.0 | 0.00 | 0.00 | 0.00 | 53 | 1014.3 |
| 20260503040819 | 51 | 300 | 0.0 | 2.0 | 0.00 | 0.00 | 0.00 | 53 | 1014.3 |
| 20260503040725 | 51 | 300 | 0.0 | 2.0 | 0.00 | 0.00 | 0.00 | 54 | 1014.2 |
| 20260503040610 | 51 | 300 | 0.0 | 2.0 | 0.00 | 0.00 | 0.00 | 53 | 1014.3 |
| 20260503040523 | 51 | 300 | 0.0 | 2.0 | 0.00 | 0.00 | 0.00 | 52 | 1014.3 |
| 20260503040428 | 51 | 300 | 0.0 | 2.0 | 0.00 | 0.00 | 0.00 | 53 | 1014.3 |
| 20260503040318 | 51 | 300 | 0.0 | 2.0 | 0.00 | 0.00 | 0.00 | 52 | 1014.3 |
| 20260503040251 | 51 | 310 | 0.0 | 2.0 | 0.00 | 0.00 | 0.00 | 53 | 1014.2 |
| 20260503040117 | 51 | 296 | 0.0 | 4.0 | 0.00 | 0.00 | 0.00 | 53 | 1014.2 |
| 20260503040112 | 51 | 296 | 0.0 | 4.0 | 0.00 | 0.00 | 0.00 | 53 | 1014.2 |
| 20260503040022 | 51 | 288 | 0.0 | 4.0 | 0.00 | 0.00 | 0.00 | 54 | 1014.2 |
| 20260503035928 | 51 | 323 | 0.0 | 4.0 | 0.00 | 0.00 | 0.00 | 54 | 1014.2 |
| 20260503035814 | 51 | 325 | 0.0 | 4.0 | 0.00 | 0.00 | 0.00 | 54 | 1014.2 |
| 20260503035724 | 51 | 288 | 0.0 | 4.0 | 0.00 | 0.00 | 0.00 | 54 | 1014.2 |
| 20260503035610 | 51 | 273 | 0.0 | 4.0 | 0.00 | 0.00 | 0.00 | 55 | 1014.2 |
| 20260503035523 | 51 | 342 | 0.0 | 4.0 | 0.00 | 0.00 | 0.00 | 55 | 1014.2 |
| 20260503035409 | 51 | 12 | 0.0 | 4.0 | 0.00 | 0.00 | 0.00 | 57 | 1014.2 |
| 20260503035315 | 51 | 311 | 0.0 | 4.0 | 0.00 | 0.00 | 0.00 | 54 | 1014.2 |
| 20260503035241 | 51 | 294 | 0.0 | 0.0 | 0.00 | 0.00 | 0.00 | 54 | 1014.2 |
| 20260503035118 | 51 | 300 | 0.0 | 0.0 | 0.00 | 0.00 | 0.00 | 54 | 1014.2 |
| 20260503035023 | 51 | 284 | 0.0 | 0.0 | 0.00 | 0.00 | 0.00 | 59 | 1014.2 |
| 20260503034909 | 51 | 46 | 0.0 | 0.0 | 0.00 | 0.00 | 0.00 | 60 | 1014.1 |
| 20260503034815 | 51 | 46 | 0.0 | 0.0 | 0.00 | 0.00 | 0.00 | 59 | 1014.1 |
| 20260503034721 | 51 | 46 | 0.0 | 0.0 | 0.00 | 0.00 | 0.00 | 59 | 1014.1 |
| 20260503034611 | 51 | 46 | 0.0 | 0.0 | 0.00 | 0.00 | 0.00 | 65 | 1014.1 |
| 20260503034524 | 51 | 46 | 0.0 | 0.0 | 0.00 | 0.00 | 0.00 | 62 | 1014.1 |
| 20260503034509 | 51 | 57 | 0.0 | 0.0 | 0.00 | 0.00 | 0.00 | 62 | 1014.1 |
| 20260503034427 | 51 | 32 | 0.0 | 0.0 | 0.00 | 0.00 | 0.00 | 61 | 1014.1 |
| 20260503034313 | 51 | 32 | 0.0 | 0.0 | 0.00 | 0.00 | 0.00 | 61 | 1014.2 |
| 20260503034219 | 51 | 32 | 0.0 | 0.0 | 0.00 | 0.00 | 0.00 | 63 | 1014.1 |
| 20260503034125 | 51 | 32 | 0.0 | 0.0 | 0.00 | 0.00 | 0.00 | 64 | 1014.1 |
| 20260503034015 | 51 | 32 | 0.0 | 0.0 | 0.00 | 0.00 | 0.00 | 61 | 1014.0 |
| 20260503033948 | 51 | 32 | 0.0 | 0.0 | 0.00 | 0.00 | 0.00 | 59 | 1014.0 |
| 20260503033813 | 52 | 32 | 0.0 | 0.0 | 0.00 | 0.00 | 0.00 | 58 | 1014.0 |
| 20260503033746 | 52 | 32 | 0.0 | 0.0 | 0.00 | 0.00 | 0.00 | 58 | 1014.0 |
| 20260503033611 | 52 | 32 | 0.0 | 0.0 | 0.00 | 0.00 | 0.00 | 57 | 1014.0 |
| 20260503033517 | 52 | 32 | 0.0 | 0.0 | 0.00 | 0.00 | 0.00 | 56 | 1014.1 |
| 20260503033428 | 52 | 32 | 0.0 | 0.0 | 0.00 | 0.00 | 0.00 | 58 | 1014.1 |
| 20260503033314 | 52 | 32 | 0.0 | 0.0 | 0.00 | 0.00 | 0.00 | 55 | 1014.0 |
| 20260503033220 | 52 | 32 | 0.0 | 0.0 | 0.00 | 0.00 | 0.00 | 55 | 1014.0 |
| 20260503033133 | 52 | 32 | 0.0 | 0.0 | 0.00 | 0.00 | 0.00 | 56 | 1014.0 |
| 20260503033106 | 51 | 32 | 0.0 | 0.0 | 0.00 | 0.00 | 0.00 | 56 | 1014.0 |
| 20260503033018 | 52 | 32 | 0.0 | 0.0 | 0.00 | 0.00 | 0.00 | 57 | 1014.0 |
| 20260503032924 | 52 | 32 | 0.0 | 0.0 | 0.00 | 0.00 | 0.00 | 59 | 1014.0 |
| 20260503032814 | 52 | 32 | 0.0 | 0.0 | 0.00 | 0.00 | 0.00 | 60 | 1014.0 |
| 20260503032747 | 52 | 32 | 0.0 | 0.0 | 0.00 | 0.00 | 0.00 | 59 | 1014.0 |
| 20260503032612 | 52 | 32 | 0.0 | 0.0 | 0.00 | 0.00 | 0.00 | 55 | 1013.9 |
| 20260503032518 | 52 | 32 | 0.0 | 0.0 | 0.00 | 0.00 | 0.00 | 58 | 1013.9 |
| 20260503032425 | 52 | 32 | 0.0 | 0.0 | 0.00 | 0.00 | 0.00 | 57 | 1013.9 |
| 20260503032311 | 52 | 32 | 0.0 | 0.0 | 0.00 | 0.00 | 0.00 | 52 | 1013.9 |
| 20260503032228 | 52 | 32 | 0.0 | 0.0 | 0.00 | 0.00 | 0.00 | 52 | 1013.9 |
| 20260503032114 | 52 | 303 | 0.0 | 0.0 | 0.00 | 0.00 | 0.00 | 53 | 1013.9 |
| 20260503032021 | 52 | 303 | 0.0 | 0.0 | 0.00 | 0.00 | 0.00 | 57 | 1013.9 |
| 20260503031926 | 52 | 303 | 0.0 | 0.0 | 0.00 | 0.00 | 0.00 | 55 | 1013.9 |
| 20260503031813 | 52 | 303 | 0.0 | 0.0 | 0.00 | 0.00 | 0.00 | 54 | 1013.9 |
| 20260503031730 | 52 | 303 | 0.0 | 0.0 | 0.00 | 0.00 | 0.00 | 54 | 1013.9 |
| 20260503031635 | 52 | 303 | 0.0 | 0.0 | 0.00 | 0.00 | 0.00 | 53 | 1013.9 |
| 20260503031609 | 52 | 303 | 0.0 | 0.0 | 0.00 | 0.00 | 0.00 | 53 | 1013.9 |
| 20260503031521 | 52 | 303 | 0.0 | 0.0 | 0.00 | 0.00 | 0.00 | 52 | 1013.9 |
| 20260503031427 | 52 | 303 | 0.0 | 0.0 | 0.00 | 0.00 | 0.00 | 55 | 1013.9 |
| 20260503031313 | 52 | 303 | 0.0 | 0.0 | 0.00 | 0.00 | 0.00 | 54 | 1013.9 |
| 20260503031219 | 52 | 303 | 0.0 | 0.0 | 0.00 | 0.00 | 0.00 | 54 | 1013.9 |
| 20260503031109 | 52 | 303 | 0.0 | 0.0 | 0.00 | 0.00 | 0.00 | 55 | 1013.9 |
| 20260503031022 | 52 | 303 | 0.0 | 0.0 | 0.00 | 0.00 | 0.00 | 54 | 1013.9 |
| 20260503030927 | 52 | 303 | 0.0 | 0.0 | 0.00 | 0.00 | 0.00 | 54 | 1013.9 |
| 20260503030813 | 52 | 303 | 0.0 | 0.0 | 0.00 | 0.00 | 0.00 | 54 | 1013.9 |
| 20260503030719 | 52 | 303 | 0.0 | 0.0 | 0.00 | 0.00 | 0.00 | 55 | 1013.8 |
| 20260503030609 | 52 | 303 | 0.0 | 0.0 | 0.00 | 0.00 | 0.00 | 55 | 1013.9 |
| 20260503030542 | 52 | 303 | 0.0 | 0.0 | 0.00 | 0.00 | 0.00 | 57 | 1013.9 |
| 20260503030427 | 52 | 303 | 0.0 | 0.0 | 0.00 | 0.00 | 0.00 | 55 | 1013.9 |
| 20260503030313 | 52 | 303 | 0.0 | 0.0 | 0.00 | 0.00 | 0.00 | 54 | 1013.9 |
| 20260503030247 | 52 | 303 | 0.0 | 0.0 | 0.00 | 0.00 | 0.00 | 54 | 1013.9 |
| 20260503030111 | 52 | 303 | 0.0 | 0.0 | 0.00 | 0.00 | 0.00 | 52 | 1013.9 |
| 20260503030037 | 52 | 303 | 0.0 | 0.0 | 0.00 | 0.00 | 0.00 | 51 | 1013.9 |
| 20260503025933 | 52 | 303 | 0.0 | 0.0 | 0.00 | 0.00 | 0.00 | 50 | 1013.9 |
| 20260503025812 | 52 | 303 | 0.0 | 0.0 | 0.00 | 0.00 | 0.00 | 50 | 1013.9 |
| 20260503025725 | 52 | 303 | 0.0 | 0.0 | 0.00 | 0.00 | 0.00 | 49 | 1013.9 |
| 20260503025611 | 52 | 303 | 0.0 | 0.0 | 0.00 | 0.00 | 0.00 | 52 | 1013.9 |
| 20260503025517 | 52 | 303 | 0.0 | 0.0 | 0.00 | 0.00 | 0.00 | 55 | 1013.9 |
| 20260503025427 | 52 | 303 | 0.0 | 0.0 | 0.00 | 0.00 | 0.00 | 50 | 1013.9 |
| 20260503025313 | 52 | 303 | 0.0 | 0.0 | 0.00 | 0.00 | 0.00 | 50 | 1013.9 |
| 20260503025226 | 52 | 303 | 0.0 | 0.0 | 0.00 | 0.00 | 0.00 | 53 | 1013.9 |
| 20260503025132 | 52 | 303 | 0.0 | 0.0 | 0.00 | 0.00 | 0.00 | 51 | 1013.9 |
| 20260503025017 | 52 | 303 | 0.0 | 0.0 | 0.00 | 0.00 | 0.00 | 52 | 1013.9 |
| 20260503024923 | 52 | 303 | 0.0 | 0.0 | 0.00 | 0.00 | 0.00 | 53 | 1013.9 |
| 20260503024813 | 52 | 303 | 0.0 | 0.0 | 0.00 | 0.00 | 0.00 | 53 | 1013.8 |
| 20260503024726 | 52 | 304 | 0.0 | 0.0 | 0.00 | 0.00 | 0.00 | 53 | 1013.8 |
| 20260503024612 | 53 | 304 | 0.0 | 0.0 | 0.00 | 0.00 | 0.00 | 53 | 1013.9 |
| 20260503024556 | 52 | 304 | 0.0 | 0.0 | 0.00 | 0.00 | 0.00 | 52 | 1013.9 |
| 20260503024540 | 53 | 304 | 0.0 | 0.0 | 0.00 | 0.00 | 0.00 | 54 | 1013.9 |
| 20260503024431 | 53 | 304 | 0.0 | 0.0 | 0.00 | 0.00 | 0.00 | 54 | 1013.9 |
| 20260503024317 | 53 | 304 | 0.0 | 0.0 | 0.00 | 0.00 | 0.00 | 51 | 1013.9 |
| 20260503024227 | 53 | 255 | 0.0 | 0.0 | 0.00 | 0.00 | 0.00 | 54 | 1013.9 |
| 20260503024113 | 53 | 255 | 0.0 | 0.0 | 0.00 | 0.00 | 0.00 | 52 | 1013.9 |
| 20260503024015 | 53 | 255 | 0.0 | 0.0 | 0.00 | 0.00 | 0.00 | 52 | 1013.9 |
| 20260503023922 | 53 | 255 | 0.0 | 0.0 | 0.00 | 0.00 | 0.00 | 53 | 1013.9 |
| 20260503023835 | 53 | 255 | 0.0 | 0.0 | 0.00 | 0.00 | 0.00 | 54 | 1013.9 |
| 20260503023741 | 53 | 255 | 0.0 | 0.0 | 0.00 | 0.00 | 0.00 | 53 | 1013.8 |
| 20260503023609 | 53 | 255 | 0.0 | 0.0 | 0.00 | 0.00 | 0.00 | 49 | 1013.9 |
| 20260503023515 | 53 | 255 | 0.0 | 0.0 | 0.00 | 0.00 | 0.00 | 49 | 1013.8 |
| 20260503023428 | 53 | 255 | 0.0 | 0.0 | 0.00 | 0.00 | 0.00 | 50 | 1013.8 |
| 20260503023315 | 53 | 255 | 0.0 | 0.0 | 0.00 | 0.00 | 0.00 | 51 | 1013.8 |
| 20260503023221 | 53 | 255 | 0.0 | 0.0 | 0.00 | 0.00 | 0.00 | 52 | 1013.9 |
| 20260503023111 | 53 | 255 | 0.0 | 0.0 | 0.00 | 0.00 | 0.00 | 49 | 1013.8 |
| 20260503023058 | 53 | 255 | 0.0 | 0.0 | 0.00 | 0.00 | 0.00 | 51 | 1013.8 |
| 20260503023018 | 53 | 255 | 0.0 | 0.0 | 0.00 | 0.00 | 0.00 | 51 | 1013.8 |
| 20260503022923 | 53 | 319 | 0.0 | 0.0 | 0.00 | 0.00 | 0.00 | 47 | 1013.8 |
| 20260503022809 | 53 | 261 | 0.0 | 6.0 | 0.00 | 0.00 | 0.00 | 53 | 1013.9 |
| 20260503022722 | 53 | 261 | 0.0 | 6.0 | 0.00 | 0.00 | 0.00 | 53 | 1013.9 |
| 20260503022612 | 53 | 261 | 0.0 | 6.0 | 0.00 | 0.00 | 0.00 | 56 | 1013.9 |
| 20260503022518 | 53 | 261 | 0.0 | 6.0 | 0.00 | 0.00 | 0.00 | 53 | 1013.8 |
| 20260503022424 | 53 | 261 | 0.0 | 6.0 | 0.00 | 0.00 | 0.00 | 53 | 1013.8 |
| 20260503022330 | 53 | 261 | 0.0 | 6.0 | 0.00 | 0.00 | 0.00 | 55 | 1013.8 |
| 20260503022222 | 53 | 261 | 0.0 | 6.0 | 0.00 | 0.00 | 0.00 | 54 | 1013.8 |
| 20260503022149 | 53 | 261 | 0.0 | 6.0 | 0.00 | 0.00 | 0.00 | 50 | 1013.8 |
| 20260503022015 | 53 | 259 | 0.0 | 6.0 | 0.00 | 0.00 | 0.00 | 53 | 1013.8 |
| 20260503021931 | 53 | 282 | 0.0 | 0.0 | 0.00 | 0.00 | 0.00 | 52 | 1013.8 |
| 20260503021817 | 53 | 281 | 0.0 | 0.0 | 0.00 | 0.00 | 0.00 | 51 | 1013.8 |
| 20260503021723 | 53 | 284 | 0.0 | 0.0 | 0.00 | 0.00 | 0.00 | 51 | 1013.8 |
| 20260503021609 | 53 | 296 | 0.0 | 0.0 | 0.00 | 0.00 | 0.00 | 55 | 1013.7 |
| 20260503021548 | 53 | 294 | 0.0 | 0.0 | 0.00 | 0.00 | 0.00 | 55 | 1013.7 |
| 20260503021515 | 53 | 286 | 0.0 | 0.0 | 0.00 | 0.00 | 0.00 | 56 | 1013.8 |
| 20260503021432 | 53 | 286 | 0.0 | 0.0 | 0.00 | 0.00 | 0.00 | 52 | 1013.8 |
| 20260503021335 | 53 | 286 | 0.0 | 0.0 | 0.00 | 0.00 | 0.00 | 50 | 1013.8 |
| 20260503021220 | 53 | 286 | 0.0 | 0.0 | 0.00 | 0.00 | 0.00 | 51 | 1013.7 |
| 20260503021126 | 53 | 286 | 0.0 | 0.0 | 0.00 | 0.00 | 0.00 | 50 | 1013.7 |
| 20260503021012 | 53 | 278 | 0.0 | 0.0 | 0.00 | 0.00 | 0.00 | 51 | 1013.7 |
| 20260503020925 | 53 | 290 | 0.0 | 0.0 | 0.00 | 0.00 | 0.00 | 49 | 1013.7 |
| 20260503020815 | 53 | 290 | 0.0 | 0.0 | 0.00 | 0.00 | 0.00 | 50 | 1013.8 |
| 20260503020721 | 53 | 290 | 0.0 | 0.0 | 0.00 | 0.00 | 0.00 | 50 | 1013.8 |
| 20260503020627 | 53 | 290 | 0.0 | 0.0 | 0.00 | 0.00 | 0.00 | 51 | 1013.8 |
| 20260503020513 | 53 | 290 | 0.0 | 0.0 | 0.00 | 0.00 | 0.00 | 50 | 1013.8 |
| 20260503020419 | 53 | 290 | 0.0 | 0.0 | 0.00 | 0.00 | 0.00 | 51 | 1013.7 |
| 20260503020332 | 53 | 290 | 0.0 | 0.0 | 0.00 | 0.00 | 0.00 | 49 | 1013.7 |
| 20260503020219 | 53 | 290 | 0.0 | 0.0 | 0.00 | 0.00 | 0.00 | 51 | 1013.8 |
| 20260503020122 | 53 | 290 | 0.0 | 0.0 | 0.00 | 0.00 | 0.00 | 51 | 1013.8 |
| 20260503020035 | 53 | 290 | 0.0 | 0.0 | 0.00 | 0.00 | 0.00 | 49 | 1013.7 |
| 20260503020020 | 53 | 290 | 0.0 | 0.0 | 0.00 | 0.00 | 0.00 | 49 | 1013.7 |
| 20260503015941 | 53 | 320 | 0.0 | 0.0 | 0.00 | 0.00 | 0.00 | 57 | 1013.7 |
| 20260503015826 | 53 | 9 | 0.0 | 0.0 | 0.00 | 0.00 | 0.00 | 51 | 1013.7 |
| 20260503015712 | 53 | 26 | 0.0 | 0.0 | 0.00 | 0.00 | 0.00 | 52 | 1013.7 |
| 20260503015649 | 53 | 26 | 0.0 | 0.0 | 0.00 | 0.00 | 0.00 | 49 | 1013.7 |
| 20260503015528 | 53 | 26 | 0.0 | 0.0 | 0.00 | 0.00 | 0.00 | 49 | 1013.8 |
| 20260503015414 | 53 | 26 | 0.0 | 0.0 | 0.00 | 0.00 | 0.00 | 51 | 1013.8 |
| 20260503015321 | 53 | 26 | 0.0 | 0.0 | 0.00 | 0.00 | 0.00 | 49 | 1013.8 |
| 20260503015234 | 53 | 26 | 0.0 | 0.0 | 0.00 | 0.00 | 0.00 | 48 | 1013.8 |
| 20260503015120 | 53 | 26 | 0.0 | 0.0 | 0.00 | 0.00 | 0.00 | 48 | 1013.8 |
| 20260503015010 | 53 | 21 | 0.0 | 0.0 | 0.00 | 0.00 | 0.00 | 53 | 1013.8 |
| 20260503014917 | 53 | 26 | 0.0 | 0.0 | 0.00 | 0.00 | 0.00 | 53 | 1013.9 |
| 20260503014822 | 53 | 26 | 0.0 | 0.0 | 0.00 | 0.00 | 0.00 | 57 | 1013.9 |
| 20260503014729 | 53 | 26 | 0.0 | 0.0 | 0.00 | 0.00 | 0.00 | 56 | 1013.9 |
| 20260503014615 | 53 | 26 | 0.0 | 0.0 | 0.00 | 0.00 | 0.00 | 54 | 1013.8 |
| 20260503014531 | 53 | 26 | 0.0 | 0.0 | 0.00 | 0.00 | 0.00 | 56 | 1013.8 |
| 20260503014509 | 52 | 281 | 0.0 | 0.0 | 0.00 | 0.00 | 0.00 | 56 | 1013.8 |
| 20260503014418 | 53 | 281 | 0.0 | 0.0 | 0.00 | 0.00 | 0.00 | 55 | 1013.8 |
| 20260503014323 | 53 | 281 | 0.0 | 0.0 | 0.00 | 0.00 | 0.00 | 53 | 1013.8 |
| 20260503014210 | 53 | 281 | 0.0 | 0.0 | 0.00 | 0.00 | 0.00 | 49 | 1013.8 |
| 20260503014143 | 53 | 61 | 0.0 | 0.0 | 0.00 | 0.00 | 0.00 | 55 | 1013.8 |
| 20260503014027 | 53 | 118 | 0.0 | 0.0 | 0.00 | 0.00 | 0.00 | 55 | 1013.8 |
| 20260503013917 | 53 | 236 | 0.0 | 0.0 | 0.00 | 0.00 | 0.00 | 60 | 1013.8 |
| 20260503013824 | 53 | 236 | 0.0 | 0.0 | 0.00 | 0.00 | 0.00 | 58 | 1013.8 |
| 20260503013727 | 53 | 236 | 0.0 | 0.0 | 0.00 | 0.00 | 0.00 | 57 | 1013.8 |
| 20260503013613 | 53 | 236 | 0.0 | 0.0 | 0.00 | 0.00 | 0.00 | 63 | 1013.8 |
| 20260503013527 | 53 | 236 | 0.0 | 0.0 | 0.00 | 0.00 | 0.00 | 63 | 1013.8 |
| 20260503013416 | 53 | 236 | 0.0 | 0.0 | 0.00 | 0.00 | 0.00 | 54 | 1013.7 |
| 20260503013323 | 53 | 236 | 0.0 | 0.0 | 0.00 | 0.00 | 0.00 | 55 | 1013.7 |
| 20260503013209 | 53 | 236 | 0.0 | 0.0 | 0.00 | 0.00 | 0.00 | 56 | 1013.7 |
| 20260503013142 | 52 | 236 | 0.0 | 0.0 | 0.00 | 0.00 | 0.00 | 57 | 1013.7 |
| 20260503013115 | 53 | 236 | 0.0 | 0.0 | 0.00 | 0.00 | 0.00 | 57 | 1013.7 |
| 20260503013028 | 53 | 236 | 0.0 | 0.0 | 0.00 | 0.00 | 0.00 | 59 | 1013.7 |
| 20260503012920 | 53 | 236 | 0.0 | 0.0 | 0.00 | 0.00 | 0.00 | 59 | 1013.7 |
| 20260503012826 | 53 | 236 | 0.0 | 0.0 | 0.00 | 0.00 | 0.00 | 57 | 1013.7 |
| 20260503012713 | 53 | 236 | 0.0 | 0.0 | 0.00 | 0.00 | 0.00 | 56 | 1013.7 |
| 20260503012618 | 53 | 236 | 0.0 | 0.0 | 0.00 | 0.00 | 0.00 | 56 | 1013.7 |
| 20260503012531 | 53 | 236 | 0.0 | 0.0 | 0.00 | 0.00 | 0.00 | 54 | 1013.7 |
| 20260503012416 | 53 | 236 | 0.0 | 0.0 | 0.00 | 0.00 | 0.00 | 54 | 1013.7 |
| 20260503012321 | 53 | 236 | 0.0 | 0.0 | 0.00 | 0.00 | 0.00 | 54 | 1013.6 |
| 20260503012217 | 54 | 236 | 0.0 | 0.0 | 0.00 | 0.00 | 0.00 | 55 | 1013.6 |
| 20260503012142 | 54 | 236 | 0.0 | 0.0 | 0.00 | 0.00 | 0.00 | 54 | 1013.6 |
| 20260503012034 | 54 | 236 | 0.0 | 0.0 | 0.00 | 0.00 | 0.00 | 54 | 1013.6 |
| 20260503011920 | 54 | 236 | 0.0 | 0.0 | 0.00 | 0.00 | 0.00 | 55 | 1013.6 |
| 20260503011817 | 54 | 236 | 0.0 | 0.0 | 0.00 | 0.00 | 0.00 | 58 | 1013.5 |
| 20260503011723 | 54 | 236 | 0.0 | 0.0 | 0.00 | 0.00 | 0.00 | 54 | 1013.5 |
| 20260503011612 | 54 | 236 | 0.0 | 0.0 | 0.00 | 0.00 | 0.00 | 57 | 1013.5 |
| 20260503011538 | 54 | 236 | 0.0 | 0.0 | 0.00 | 0.00 | 0.00 | 58 | 1013.5 |
| 20260503011518 | 54 | 236 | 0.0 | 0.0 | 0.00 | 0.00 | 0.00 | 58 | 1013.5 |
| 20260503011431 | 54 | 236 | 0.0 | 0.0 | 0.00 | 0.00 | 0.00 | 54 | 1013.5 |
| 20260503011343 | 54 | 236 | 0.0 | 0.0 | 0.00 | 0.00 | 0.00 | 50 | 1013.5 |
| 20260503011235 | 54 | 236 | 0.0 | 0.0 | 0.00 | 0.00 | 0.00 | 51 | 1013.5 |
| 20260503011120 | 54 | 236 | 0.0 | 0.0 | 0.00 | 0.00 | 0.00 | 51 | 1013.5 |
| 20260503011027 | 54 | 236 | 0.0 | 0.0 | 0.00 | 0.00 | 0.00 | 54 | 1013.5 |
| 20260503010917 | 54 | 236 | 0.0 | 0.0 | 0.00 | 0.00 | 0.00 | 52 | 1013.4 |
| 20260503010823 | 54 | 236 | 0.0 | 0.0 | 0.00 | 0.00 | 0.00 | 50 | 1013.4 |
| 20260503010709 | 55 | 236 | 0.0 | 0.0 | 0.00 | 0.00 | 0.00 | 52 | 1013.4 |
| 20260503010622 | 55 | 236 | 0.0 | 0.0 | 0.00 | 0.00 | 0.00 | 53 | 1013.4 |
| 20260503010548 | 55 | 236 | 0.0 | 0.0 | 0.00 | 0.00 | 0.00 | 54 | 1013.4 |
| 20260503010413 | 55 | 236 | 0.0 | 4.0 | 0.00 | 0.00 | 0.00 | 53 | 1013.4 |
| 20260503010329 | 55 | 236 | 0.0 | 4.0 | 0.00 | 0.00 | 0.00 | 51 | 1013.4 |
| 20260503010216 | 55 | 236 | 0.0 | 4.0 | 0.00 | 0.00 | 0.00 | 44 | 1013.4 |
| 20260503010122 | 55 | 237 | 0.0 | 4.0 | 0.00 | 0.00 | 0.00 | 45 | 1013.4 |
| 20260503010058 | 54 | 238 | 0.0 | 4.0 | 0.00 | 0.00 | 0.00 | 49 | 1013.3 |
| 20260503010027 | 54 | 244 | 0.0 | 4.0 | 0.00 | 0.00 | 0.00 | 49 | 1013.3 |
| 20260503005914 | 54 | 306 | 0.0 | 4.0 | 0.00 | 0.00 | 0.00 | 52 | 1013.3 |
| 20260503005847 | 54 | 311 | 0.0 | 4.0 | 0.00 | 0.00 | 0.00 | 49 | 1013.3 |
| 20260503005736 | 54 | 311 | 0.0 | 4.0 | 0.00 | 0.00 | 0.00 | 45 | 1013.3 |
| 20260503005621 | 54 | 260 | 0.0 | 4.0 | 0.00 | 0.00 | 0.00 | 44 | 1013.3 |
| 20260503005534 | 54 | 131 | 0.0 | 4.0 | 0.00 | 0.00 | 0.00 | 51 | 1013.3 |
| 20260503005420 | 54 | 26 | 0.0 | 0.0 | 0.00 | 0.00 | 0.00 | 56 | 1013.3 |
| 20260503005326 | 54 | 5 | 0.0 | 0.0 | 0.00 | 0.00 | 0.00 | 55 | 1013.3 |
| 20260503005215 | 54 | 5 | 0.0 | 0.0 | 0.00 | 0.00 | 0.00 | 55 | 1013.2 |
| 20260503005122 | 54 | 5 | 0.0 | 0.0 | 0.00 | 0.00 | 0.00 | 52 | 1013.2 |
| 20260503005035 | 54 | 5 | 0.0 | 0.0 | 0.00 | 0.00 | 0.00 | 51 | 1013.3 |
| 20260503004914 | 54 | 34 | 0.0 | 0.0 | 0.00 | 0.00 | 0.00 | 51 | 1013.2 |
| 20260503004826 | 54 | 37 | 0.0 | 0.0 | 0.00 | 0.00 | 0.00 | 52 | 1013.2 |
| 20260503004728 | 54 | 113 | 0.0 | 0.0 | 0.00 | 0.00 | 0.00 | 49 | 1013.1 |
| 20260503004618 | 54 | 113 | 0.0 | 0.0 | 0.00 | 0.00 | 0.00 | 53 | 1013.1 |
| 20260503004543 | 54 | 126 | 0.0 | 0.0 | 0.00 | 0.00 | 0.00 | 56 | 1013.1 |
| 20260503004525 | 54 | 171 | 0.0 | 0.0 | 0.00 | 0.00 | 0.00 | 56 | 1013.1 |
| 20260503004437 | 54 | 269 | 0.0 | 0.0 | 0.00 | 0.00 | 0.00 | 55 | 1013.1 |
| 20260503004335 | 54 | 269 | 0.0 | 0.0 | 0.00 | 0.00 | 0.00 | 52 | 1013.1 |
| 20260503004247 | 54 | 269 | 0.0 | 0.0 | 0.00 | 0.00 | 0.00 | 51 | 1013.1 |
| 20260503004112 | 54 | 269 | 0.0 | 0.0 | 0.00 | 0.00 | 0.00 | 50 | 1013.1 |
| 20260503004018 | 54 | 261 | 0.0 | 0.0 | 0.00 | 0.00 | 0.00 | 52 | 1013.0 |
| 20260503003928 | 54 | 260 | 0.0 | 0.0 | 0.00 | 0.00 | 0.00 | 49 | 1013.0 |
| 20260503003814 | 54 | 260 | 0.0 | 0.0 | 0.00 | 0.00 | 0.00 | 48 | 1013.0 |
| 20260503003727 | 54 | 246 | 0.0 | 0.0 | 0.00 | 0.00 | 0.00 | 51 | 1013.0 |
| 20260503003613 | 54 | 121 | 0.0 | 0.0 | 0.00 | 0.00 | 0.00 | 49 | 1012.9 |
| 20260503003519 | 54 | 119 | 0.0 | 0.0 | 0.00 | 0.00 | 0.00 | 52 | 1012.9 |
| 20260503003452 | 54 | 26 | 0.0 | 0.0 | 0.00 | 0.00 | 0.00 | 50 | 1012.9 |
| 20260503003317 | 54 | 304 | 0.0 | 0.0 | 0.00 | 0.00 | 0.00 | 53 | 1012.8 |
| 20260503003223 | 54 | 184 | 0.0 | 0.0 | 0.00 | 0.00 | 0.00 | 61 | 1012.8 |
| 20260503003128 | 54 | 286 | 0.0 | 0.0 | 0.00 | 0.00 | 0.00 | 62 | 1012.8 |
| 20260503003058 | 53 | 286 | 0.0 | 0.0 | 0.00 | 0.00 | 0.00 | 55 | 1012.8 |
| 20260503003014 | 54 | 282 | 0.0 | 0.0 | 0.00 | 0.00 | 0.00 | 61 | 1012.8 |
| 20260503002947 | 54 | 282 | 0.0 | 0.0 | 0.00 | 0.00 | 0.00 | 61 | 1012.8 |
| 20260503002815 | 54 | 282 | 0.0 | 0.0 | 0.00 | 0.00 | 0.00 | 59 | 1012.8 |
| 20260503002719 | 54 | 282 | 0.0 | 0.0 | 0.00 | 0.00 | 0.00 | 59 | 1012.7 |
| 20260503002652 | 54 | 282 | 0.0 | 0.0 | 0.00 | 0.00 | 0.00 | 60 | 1012.7 |
| 20260503002517 | 54 | 282 | 0.0 | 0.0 | 0.00 | 0.00 | 0.00 | 60 | 1012.7 |
| 20260503002423 | 54 | 282 | 0.0 | 0.0 | 0.00 | 0.00 | 0.00 | 60 | 1012.7 |
| 20260503002310 | 54 | 282 | 0.0 | 0.0 | 0.00 | 0.00 | 0.00 | 55 | 1012.6 |
| 20260503002220 | 54 | 282 | 0.0 | 0.0 | 0.00 | 0.00 | 0.00 | 54 | 1012.6 |
| 20260503002134 | 54 | 282 | 0.0 | 0.0 | 0.00 | 0.00 | 0.00 | 56 | 1012.6 |
| 20260503002013 | 54 | 282 | 0.0 | 0.0 | 0.00 | 0.00 | 0.00 | 55 | 1012.5 |
| 20260503001943 | 55 | 282 | 0.0 | 0.0 | 0.00 | 0.00 | 0.00 | 54 | 1012.5 |
| 20260503001809 | 55 | 282 | 0.0 | 0.0 | 0.00 | 0.00 | 0.00 | 51 | 1012.5 |
| 20260503001715 | 55 | 282 | 0.0 | 0.0 | 0.00 | 0.00 | 0.00 | 49 | 1012.5 |
| 20260503001632 | 55 | 282 | 0.0 | 0.0 | 0.00 | 0.00 | 0.00 | 51 | 1012.5 |
| 20260503001518 | 55 | 282 | 0.0 | 0.0 | 0.00 | 0.00 | 0.00 | 51 | 1012.5 |
| 20260503001506 | 54 | 282 | 0.0 | 0.0 | 0.00 | 0.00 | 0.00 | 51 | 1012.5 |
| 20260503001424 | 55 | 282 | 0.0 | 0.0 | 0.00 | 0.00 | 0.00 | 53 | 1012.5 |
| 20260503001310 | 55 | 282 | 0.0 | 0.0 | 0.00 | 0.00 | 0.00 | 51 | 1012.5 |
| 20260503001215 | 55 | 282 | 0.0 | 0.0 | 0.00 | 0.00 | 0.00 | 53 | 1012.5 |
| 20260503001118 | 55 | 282 | 0.0 | 0.0 | 0.00 | 0.00 | 0.00 | 53 | 1012.5 |
| 20260503001035 | 55 | 282 | 0.0 | 0.0 | 0.00 | 0.00 | 0.00 | 52 | 1012.5 |
| 20260503000921 | 55 | 282 | 0.0 | 0.0 | 0.00 | 0.00 | 0.00 | 51 | 1012.4 |
| 20260503000826 | 55 | 282 | 0.0 | 0.0 | 0.00 | 0.00 | 0.00 | 50 | 1012.4 |
| 20260503000710 | 55 | 282 | 0.0 | 0.0 | 0.00 | 0.00 | 0.00 | 52 | 1012.4 |
| 20260503000615 | 55 | 282 | 0.0 | 0.0 | 0.00 | 0.00 | 0.00 | 52 | 1012.4 |
| 20260503000529 | 55 | 282 | 0.0 | 0.0 | 0.00 | 0.00 | 0.00 | 52 | 1012.4 |
| 20260503000437 | 56 | 282 | 0.0 | 0.0 | 0.00 | 0.00 | 0.00 | 50 | 1012.4 |
| 20260503000321 | 56 | 292 | 0.0 | 0.0 | 0.00 | 0.00 | 0.00 | 52 | 1012.4 |
| 20260503000227 | 56 | 292 | 0.0 | 0.0 | 0.00 | 0.00 | 0.00 | 53 | 1012.4 |
| 20260503000112 | 56 | 292 | 0.0 | 0.0 | 0.00 | 0.00 | 0.00 | 51 | 1012.4 |
| 20260503000056 | 56 | 292 | 0.0 | 0.0 | 0.00 | 0.00 | 0.00 | 51 | 1012.4 |
| 20260503000018 | 56 | 292 | 0.0 | 0.0 | 0.00 | 0.00 | 0.00 | 55 | 1012.4 |
| 20260502235935 | 56 | 292 | 0.0 | 0.0 | 0.00 | 0.00 | 0.00 | 53 | 1012.4 |
| 20260502235821 | 56 | 292 | 0.0 | 0.0 | 0.00 | 0.00 | 0.00 | 55 | 1012.3 |
| 20260502235727 | 56 | 292 | 0.0 | 0.0 | 0.00 | 0.00 | 0.00 | 50 | 1012.3 |
| 20260502235613 | 56 | 292 | 0.0 | 0.0 | 0.00 | 0.00 | 0.00 | 49 | 1012.3 |
| 20260502235520 | 56 | 292 | 0.0 | 0.0 | 0.00 | 0.00 | 0.00 | 48 | 1012.3 |
| 20260502235429 | 56 | 292 | 0.0 | 0.0 | 0.00 | 0.00 | 0.00 | 50 | 1012.3 |
| 20260502235314 | 57 | 292 | 0.0 | 0.0 | 0.00 | 0.00 | 0.00 | 49 | 1012.3 |
| 20260502235226 | 57 | 292 | 0.0 | 0.0 | 0.00 | 0.00 | 0.00 | 47 | 1012.3 |
| 20260502235125 | 57 | 292 | 0.0 | 0.0 | 0.00 | 0.00 | 0.00 | 46 | 1012.3 |
| 20260502235011 | 57 | 292 | 0.0 | 0.0 | 0.00 | 0.00 | 0.00 | 43 | 1012.2 |
| 20260502234944 | 57 | 292 | 0.0 | 0.0 | 0.00 | 0.00 | 0.00 | 43 | 1012.2 |
| 20260502234813 | 57 | 292 | 0.0 | 0.0 | 0.00 | 0.00 | 0.00 | 42 | 1012.1 |
| 20260502234718 | 57 | 292 | 0.0 | 0.0 | 0.00 | 0.00 | 0.00 | 43 | 1012.1 |
| 20260502234624 | 57 | 5 | 0.0 | 0.0 | 0.00 | 0.00 | 0.00 | 42 | 1012.1 |
| 20260502234546 | 56 | 5 | 0.0 | 0.0 | 0.00 | 0.00 | 0.00 | 42 | 1012.0 |
| 20260502234510 | 57 | 5 | 0.0 | 0.0 | 0.00 | 0.00 | 0.00 | 42 | 1012.0 |
| 20260502234443 | 57 | 5 | 0.0 | 0.0 | 0.00 | 0.00 | 0.00 | 41 | 1012.0 |
| 20260502234328 | 57 | 5 | 0.0 | 0.0 | 0.00 | 0.00 | 0.00 | 41 | 1012.1 |
| 20260502234218 | 57 | 5 | 0.0 | 0.0 | 0.00 | 0.00 | 0.00 | 43 | 1012.0 |
| 20260502234151 | 57 | 5 | 0.0 | 0.0 | 0.00 | 0.00 | 0.00 | 44 | 1012.0 |
| 20260502234016 | 57 | 5 | 0.0 | 0.0 | 0.00 | 0.00 | 0.00 | 46 | 1012.0 |
| 20260502233922 | 57 | 5 | 0.0 | 0.0 | 0.00 | 0.00 | 0.00 | 45 | 1012.0 |
| 20260502233855 | 57 | 299 | 0.0 | 0.0 | 0.00 | 0.00 | 0.00 | 44 | 1011.9 |
| 20260502233710 | 57 | 299 | 0.0 | 0.0 | 0.00 | 0.00 | 0.00 | 44 | 1011.9 |
| 20260502233643 | 57 | 299 | 0.0 | 0.0 | 0.00 | 0.00 | 0.00 | 44 | 1011.9 |
| 20260502233532 | 57 | 297 | 0.0 | 0.0 | 0.00 | 0.00 | 0.00 | 43 | 1012.0 |
| 20260502233444 | 57 | 294 | 0.0 | 0.0 | 0.00 | 0.00 | 0.00 | 42 | 1012.0 |
| 20260502233309 | 57 | 294 | 0.0 | 0.0 | 0.00 | 0.00 | 0.00 | 42 | 1012.0 |
| 20260502233215 | 57 | 294 | 0.0 | 0.0 | 0.00 | 0.00 | 0.00 | 40 | 1012.0 |
| 20260502233128 | 57 | 294 | 0.0 | 0.0 | 0.00 | 0.00 | 0.00 | 40 | 1012.0 |
| 20260502233014 | 57 | 304 | 0.0 | 0.0 | 0.00 | 0.00 | 0.00 | 42 | 1011.9 |
| 20260502233004 | 57 | 304 | 0.0 | 0.0 | 0.00 | 0.00 | 0.00 | 42 | 1011.9 |
| 20260502232924 | 57 | 302 | 0.0 | 0.0 | 0.00 | 0.00 | 0.00 | 40 | 1011.9 |
| 20260502232810 | 57 | 304 | 0.0 | 0.0 | 0.00 | 0.00 | 0.00 | 40 | 1011.8 |
| 20260502232716 | 57 | 40 | 0.0 | 0.0 | 0.00 | 0.00 | 0.00 | 42 | 1011.9 |
| 20260502232622 | 58 | 264 | 0.0 | 0.0 | 0.00 | 0.00 | 0.00 | 41 | 1011.9 |
| 20260502232535 | 58 | 269 | 0.0 | 0.0 | 0.00 | 0.00 | 0.00 | 42 | 1011.9 |
| 20260502232424 | 58 | 269 | 0.0 | 1.0 | 0.00 | 0.00 | 0.00 | 42 | 1011.9 |
| 20260502232311 | 58 | 266 | 0.0 | 3.0 | 0.00 | 0.00 | 0.00 | 41 | 1011.8 |
| 20260502232217 | 58 | 296 | 0.0 | 4.0 | 0.00 | 0.00 | 0.00 | 40 | 1011.8 |
| 20260502232122 | 58 | 172 | 0.0 | 4.0 | 0.00 | 0.00 | 0.00 | 42 | 1011.8 |
| 20260502232036 | 58 | 268 | 0.0 | 4.0 | 0.00 | 0.00 | 0.00 | 39 | 1011.8 |
| 20260502231920 | 58 | 42 | 0.0 | 4.0 | 0.00 | 0.00 | 0.00 | 41 | 1011.8 |
| 20260502231839 | 58 | 306 | 0.0 | 4.0 | 0.00 | 0.00 | 0.00 | 40 | 1011.8 |
| 20260502231712 | 58 | 143 | 0.0 | 4.0 | 0.00 | 0.00 | 0.00 | 39 | 1011.8 |
| 20260502231624 | 58 | 117 | 0.0 | 4.0 | 0.00 | 0.00 | 0.00 | 40 | 1011.8 |
| 20260502231616 | 57 | 252 | 0.0 | 4.0 | 0.00 | 0.00 | 0.00 | 42 | 1011.8 |
| 20260502231510 | 58 | 279 | 0.0 | 4.0 | 0.00 | 0.00 | 0.00 | 40 | 1011.8 |
| 20260502231416 | 58 | 309 | 0.0 | 4.0 | 0.00 | 0.00 | 0.00 | 42 | 1011.8 |
| 20260502231322 | 58 | 300 | 0.0 | 0.0 | 0.00 | 0.00 | 0.00 | 42 | 1011.8 |
| 20260502231212 | 58 | 281 | 0.0 | 0.0 | 0.00 | 0.00 | 0.00 | 43 | 1011.7 |
| 20260502231125 | 58 | 280 | 0.0 | 0.0 | 0.00 | 0.00 | 0.00 | 41 | 1011.7 |
| 20260502231031 | 58 | 280 | 0.0 | 0.0 | 0.00 | 0.00 | 0.00 | 40 | 1011.8 |
| 20260502230917 | 58 | 280 | 0.0 | 0.0 | 0.00 | 0.00 | 0.00 | 42 | 1011.8 |
| 20260502230844 | 58 | 280 | 0.0 | 0.0 | 0.00 | 0.00 | 0.00 | 40 | 1011.8 |
| 20260502230709 | 58 | 327 | 0.0 | 0.0 | 0.00 | 0.00 | 0.00 | 43 | 1011.8 |
| 20260502230626 | 58 | 333 | 0.0 | 0.0 | 0.00 | 0.00 | 0.00 | 42 | 1011.8 |
| 20260502230513 | 58 | 298 | 0.0 | 0.0 | 0.00 | 0.00 | 0.00 | 42 | 1011.7 |
| 20260502230418 | 58 | 296 | 0.0 | 0.0 | 0.00 | 0.00 | 0.00 | 43 | 1011.7 |
| 20260502230324 | 58 | 294 | 0.0 | 0.0 | 0.00 | 0.00 | 0.00 | 40 | 1011.7 |
| 20260502230210 | 58 | 296 | 0.0 | 0.0 | 0.00 | 0.00 | 0.00 | 40 | 1011.7 |
| 20260502230127 | 58 | 297 | 0.0 | 0.0 | 0.00 | 0.00 | 0.00 | 40 | 1011.7 |
| 20260502230033 | 58 | 36 | 0.0 | 0.0 | 0.00 | 0.00 | 0.00 | 40 | 1011.7 |
| 20260502230010 | 58 | 302 | 0.0 | 1.0 | 0.00 | 0.00 | 0.00 | 40 | 1011.6 |
| 20260502225919 | 58 | 268 | 0.0 | 1.0 | 0.00 | 0.00 | 0.00 | 42 | 1011.6 |
| 20260502225833 | 58 | 264 | 0.0 | 1.0 | 0.00 | 0.00 | 0.00 | 41 | 1011.6 |
| 20260502225731 | 58 | 298 | 0.0 | 1.0 | 0.00 | 0.00 | 0.00 | 41 | 1011.7 |
| 20260502225623 | 58 | 266 | 0.0 | 1.0 | 0.00 | 0.00 | 0.00 | 43 | 1011.7 |
| 20260502225513 | 58 | 286 | 0.0 | 1.0 | 0.00 | 0.00 | 0.00 | 43 | 1011.7 |
| 20260502225419 | 58 | 263 | 0.0 | 1.0 | 0.00 | 0.00 | 0.00 | 44 | 1011.6 |
| 20260502225325 | 58 | 246 | 0.0 | 1.0 | 0.00 | 0.00 | 0.00 | 44 | 1011.6 |
| 20260502225231 | 58 | 266 | 0.0 | 1.0 | 0.00 | 0.00 | 0.00 | 42 | 1011.6 |
| 20260502225123 | 58 | 291 | 0.0 | 0.0 | 0.00 | 0.00 | 0.00 | 43 | 1011.6 |
| 20260502225009 | 58 | 292 | 0.0 | 2.0 | 0.00 | 0.00 | 0.00 | 41 | 1011.6 |
| 20260502224919 | 58 | 275 | 0.0 | 2.0 | 0.00 | 0.00 | 0.00 | 41 | 1011.6 |
| 20260502224852 | 59 | 298 | 0.0 | 2.0 | 0.00 | 0.00 | 0.00 | 41 | 1011.6 |
| 20260502224717 | 59 | 313 | 0.0 | 2.0 | 0.00 | 0.00 | 0.00 | 43 | 1011.6 |
| 20260502224619 | 59 | 313 | 0.0 | 2.0 | 0.00 | 0.00 | 0.00 | 42 | 1011.6 |
| 20260502224548 | 58 | 313 | 0.0 | 2.0 | 0.00 | 0.00 | 0.00 | 42 | 1011.5 |
| 20260502224525 | 59 | 313 | 0.0 | 2.0 | 0.00 | 0.00 | 0.00 | 42 | 1011.6 |
| 20260502224411 | 59 | 284 | 0.0 | 2.0 | 0.00 | 0.00 | 0.00 | 43 | 1011.5 |
| 20260502224328 | 59 | 278 | 0.0 | 2.0 | 0.00 | 0.00 | 0.00 | 41 | 1011.5 |
| 20260502224234 | 59 | 277 | 0.0 | 2.0 | 0.00 | 0.00 | 0.00 | 40 | 1011.5 |
| 20260502224140 | 59 | 270 | 0.0 | 2.0 | 0.00 | 0.00 | 0.00 | 39 | 1011.5 |
| 20260502224025 | 59 | 305 | 0.0 | 0.0 | 0.00 | 0.00 | 0.00 | 41 | 1011.5 |
| 20260502223911 | 59 | 286 | 0.0 | 0.0 | 0.00 | 0.00 | 0.00 | 42 | 1011.5 |
| 20260502223844 | 59 | 286 | 0.0 | 0.0 | 0.00 | 0.00 | 0.00 | 41 | 1011.5 |
| 20260502223713 | 59 | 288 | 0.0 | 0.0 | 0.00 | 0.00 | 0.00 | 39 | 1011.4 |
| 20260502223619 | 59 | 268 | 0.0 | 0.0 | 0.00 | 0.00 | 0.00 | 41 | 1011.4 |
| 20260502223532 | 59 | 296 | 0.0 | 0.0 | 0.00 | 0.00 | 0.00 | 40 | 1011.4 |
| 20260502223411 | 59 | 293 | 0.0 | 0.0 | 0.00 | 0.00 | 0.00 | 42 | 1011.3 |
| 20260502223324 | 59 | 307 | 0.0 | 0.0 | 0.00 | 0.00 | 0.00 | 42 | 1011.3 |
| 20260502223213 | 60 | 300 | 0.0 | 0.0 | 0.00 | 0.00 | 0.00 | 43 | 1011.4 |
| 20260502223120 | 60 | 307 | 0.0 | 0.0 | 0.00 | 0.00 | 0.00 | 43 | 1011.4 |
| 20260502223042 | 59 | 309 | 0.0 | 0.0 | 0.00 | 0.00 | 0.00 | 43 | 1011.3 |
| 20260502223026 | 60 | 11 | 0.0 | 0.0 | 0.00 | 0.00 | 0.00 | 43 | 1011.4 |
| 20260502222939 | 60 | 283 | 0.0 | 0.0 | 0.00 | 0.00 | 0.00 | 43 | 1011.4 |
| 20260502222823 | 60 | 283 | 0.0 | 0.0 | 0.00 | 0.00 | 0.00 | 43 | 1011.4 |
| 20260502222709 | 60 | 283 | 0.0 | 0.0 | 0.00 | 0.00 | 0.00 | 40 | 1011.4 |
| 20260502222620 | 60 | 283 | 0.0 | 0.0 | 0.00 | 0.00 | 0.00 | 42 | 1011.4 |
| 20260502222532 | 60 | 287 | 0.0 | 0.0 | 0.00 | 0.00 | 0.00 | 44 | 1011.4 |
| 20260502222411 | 60 | 286 | 0.0 | 0.0 | 0.00 | 0.00 | 0.00 | 42 | 1011.3 |
| 20260502222324 | 60 | 360 | 0.0 | 0.0 | 0.00 | 0.00 | 0.00 | 44 | 1011.3 |
| 20260502222210 | 60 | 21 | 0.0 | 0.0 | 0.00 | 0.00 | 0.00 | 42 | 1011.4 |
| 20260502222116 | 60 | 34 | 0.0 | 0.0 | 0.00 | 0.00 | 0.00 | 45 | 1011.4 |
| 20260502222026 | 60 | 294 | 0.0 | 0.0 | 0.00 | 0.00 | 0.00 | 41 | 1011.4 |
| 20260502221912 | 60 | 273 | 0.0 | 0.0 | 0.00 | 0.00 | 0.00 | 42 | 1011.3 |
| 20260502221825 | 60 | 240 | 0.0 | 0.0 | 0.00 | 0.00 | 0.00 | 43 | 1011.3 |
| 20260502221731 | 60 | 271 | 0.0 | 0.0 | 0.00 | 0.00 | 0.00 | 42 | 1011.3 |
| 20260502221637 | 60 | 238 | 0.0 | 0.0 | 0.00 | 0.00 | 0.00 | 41 | 1011.3 |
| 20260502221550 | 60 | 250 | 0.0 | 0.0 | 0.00 | 0.00 | 0.00 | 41 | 1011.3 |
| 20260502221508 | 59 | 278 | 0.0 | 0.0 | 0.00 | 0.00 | 0.00 | 43 | 1011.2 |
| 20260502221418 | 60 | 306 | 0.0 | 0.0 | 0.00 | 0.00 | 0.00 | 42 | 1011.3 |
| 20260502221324 | 60 | 303 | 0.0 | 0.0 | 0.00 | 0.00 | 0.00 | 43 | 1011.3 |
| 20260502221230 | 60 | 279 | 0.0 | 0.0 | 0.00 | 0.00 | 0.00 | 42 | 1011.3 |
| 20260502221122 | 60 | 301 | 0.0 | 0.0 | 0.00 | 0.00 | 0.00 | 41 | 1011.3 |
| 20260502221028 | 60 | 301 | 0.0 | 0.0 | 0.00 | 0.00 | 0.00 | 42 | 1011.3 |
| 20260502220914 | 60 | 295 | 0.0 | 0.0 | 0.00 | 0.00 | 0.00 | 42 | 1011.3 |
| 20260502220824 | 60 | 295 | 0.0 | 0.0 | 0.00 | 0.00 | 0.00 | 42 | 1011.3 |
| 20260502220710 | 60 | 295 | 0.0 | 0.0 | 0.00 | 0.00 | 0.00 | 40 | 1011.2 |
| 20260502220616 | 60 | 300 | 0.0 | 0.0 | 0.00 | 0.00 | 0.00 | 42 | 1011.3 |
| 20260502220529 | 60 | 300 | 0.0 | 0.0 | 0.00 | 0.00 | 0.00 | 43 | 1011.3 |
| 20260502220415 | 60 | 300 | 0.0 | 0.0 | 0.00 | 0.00 | 0.00 | 42 | 1011.2 |
| 20260502220326 | 60 | 300 | 0.0 | 0.0 | 0.00 | 0.00 | 0.00 | 40 | 1011.2 |
| 20260502220211 | 60 | 5 | 0.0 | 0.0 | 0.00 | 0.00 | 0.00 | 39 | 1011.3 |
| 20260502220144 | 60 | 12 | 0.0 | 0.0 | 0.00 | 0.00 | 0.00 | 38 | 1011.3 |
| 20260502220111 | 59 | 12 | 0.0 | 0.0 | 0.00 | 0.00 | 0.00 | 38 | 1011.2 |
| 20260502220009 | 60 | 349 | 0.0 | 0.0 | 0.00 | 0.00 | 0.00 | 39 | 1011.3 |
| 20260502215911 | 60 | 5 | 0.0 | 0.0 | 0.00 | 0.00 | 0.00 | 39 | 1011.3 |
| 20260502215817 | 60 | 360 | 0.0 | 0.0 | 0.00 | 0.00 | 0.00 | 40 | 1011.3 |
| 20260502215750 | 60 | 360 | 0.0 | 0.0 | 0.00 | 0.00 | 0.00 | 40 | 1011.3 |
| 20260502215619 | 60 | 300 | 0.0 | 0.0 | 0.00 | 0.00 | 0.00 | 43 | 1011.3 |
| 20260502215545 | 60 | 327 | 0.0 | 0.0 | 0.00 | 0.00 | 0.00 | 42 | 1011.3 |
| 20260502215411 | 60 | 327 | 0.0 | 0.0 | 0.00 | 0.00 | 0.00 | 42 | 1011.2 |
| 20260502215344 | 60 | 291 | 0.0 | 0.0 | 0.00 | 0.00 | 0.00 | 41 | 1011.2 |
| 20260502215209 | 60 | 314 | 0.0 | 0.0 | 0.00 | 0.00 | 0.00 | 40 | 1011.2 |
| 20260502215116 | 60 | 334 | 0.0 | 0.0 | 0.00 | 0.00 | 0.00 | 41 | 1011.2 |
| 20260502215033 | 60 | 265 | 0.0 | 0.0 | 0.00 | 0.00 | 0.00 | 41 | 1011.2 |
| 20260502214919 | 60 | 271 | 0.0 | 5.0 | 0.00 | 0.00 | 0.00 | 42 | 1011.2 |
| 20260502214825 | 60 | 271 | 0.0 | 5.0 | 0.00 | 0.00 | 0.00 | 41 | 1011.2 |
| 20260502214731 | 60 | 135 | 0.0 | 5.0 | 0.00 | 0.00 | 0.00 | 41 | 1011.2 |
| 20260502214616 | 60 | 233 | 0.0 | 5.0 | 0.00 | 0.00 | 0.00 | 42 | 1011.2 |
| 20260502214529 | 60 | 298 | 0.0 | 5.0 | 0.00 | 0.00 | 0.00 | 40 | 1011.2 |
| 20260502214511 | 60 | 320 | 0.0 | 5.0 | 0.00 | 0.00 | 0.00 | 40 | 1011.1 |
| 20260502214419 | 61 | 265 | 0.0 | 5.0 | 0.00 | 0.00 | 0.00 | 40 | 1011.2 |
| 20260502214325 | 61 | 310 | 0.0 | 5.0 | 0.00 | 0.00 | 0.00 | 41 | 1011.2 |
| 20260502214211 | 61 | 330 | 0.0 | 5.0 | 0.00 | 0.00 | 0.00 | 41 | 1011.2 |
| 20260502214144 | 61 | 355 | 0.0 | 5.0 | 0.00 | 0.00 | 0.00 | 41 | 1011.2 |
| 20260502214029 | 61 | 273 | 0.0 | 0.0 | 0.00 | 0.00 | 0.00 | 42 | 1011.1 |
| 20260502213918 | 61 | 207 | 0.0 | 0.0 | 0.00 | 0.00 | 0.00 | 41 | 1011.1 |
| 20260502213825 | 61 | 295 | 0.0 | 0.0 | 0.00 | 0.00 | 0.00 | 40 | 1011.1 |
| 20260502213711 | 61 | 305 | 0.0 | 0.0 | 0.00 | 0.00 | 0.00 | 39 | 1011.1 |
| 20260502213617 | 61 | 315 | 0.0 | 0.0 | 0.00 | 0.00 | 0.00 | 39 | 1011.0 |
| 20260502213529 | 61 | 18 | 0.0 | 0.0 | 0.00 | 0.00 | 0.00 | 41 | 1011.0 |
| 20260502213416 | 61 | 290 | 0.0 | 0.0 | 0.00 | 0.00 | 0.00 | 44 | 1011.0 |
| 20260502213346 | 61 | 215 | 0.0 | 0.0 | 0.00 | 0.00 | 0.00 | 40 | 1011.0 |
| 20260502213210 | 61 | 261 | 0.0 | 0.0 | 0.00 | 0.00 | 0.00 | 40 | 1011.0 |
| 20260502213124 | 61 | 264 | 0.0 | 0.0 | 0.00 | 0.00 | 0.00 | 39 | 1011.0 |
| 20260502213029 | 61 | 264 | 0.0 | 0.0 | 0.00 | 0.00 | 0.00 | 40 | 1011.0 |
| 20260502213005 | 60 | 269 | 0.0 | 0.0 | 0.00 | 0.00 | 0.00 | 40 | 1010.9 |
| 20260502212916 | 61 | 311 | 0.0 | 0.0 | 0.00 | 0.00 | 0.00 | 41 | 1011.0 |
| 20260502212822 | 61 | 296 | 0.0 | 0.0 | 0.00 | 0.00 | 0.00 | 40 | 1011.0 |
| 20260502212713 | 61 | 295 | 0.0 | 0.0 | 0.00 | 0.00 | 0.00 | 40 | 1011.0 |
| 20260502212618 | 61 | 296 | 0.0 | 0.0 | 0.00 | 0.00 | 0.00 | 39 | 1011.0 |
| 20260502212532 | 61 | 276 | 0.0 | 0.0 | 0.00 | 0.00 | 0.00 | 39 | 1011.0 |
| 20260502212418 | 61 | 266 | 0.0 | 0.0 | 0.00 | 0.00 | 0.00 | 39 | 1011.0 |
| 20260502212324 | 61 | 275 | 0.0 | 0.0 | 0.00 | 0.00 | 0.00 | 40 | 1011.0 |
| 20260502212213 | 61 | 318 | 0.0 | 0.0 | 0.00 | 0.00 | 0.00 | 40 | 1011.0 |
| 20260502212120 | 61 | 257 | 0.0 | 0.0 | 0.00 | 0.00 | 0.00 | 40 | 1011.0 |
| 20260502212025 | 61 | 266 | 0.0 | 0.0 | 0.00 | 0.00 | 0.00 | 39 | 1011.0 |
| 20260502211911 | 61 | 44 | 0.0 | 0.0 | 0.00 | 0.00 | 0.00 | 39 | 1010.9 |
| 20260502211824 | 61 | 69 | 0.0 | 0.0 | 0.00 | 0.00 | 0.00 | 39 | 1010.9 |
| 20260502211714 | 61 | 71 | 0.0 | 0.0 | 0.00 | 0.00 | 0.00 | 38 | 1010.9 |
| 20260502211621 | 61 | 250 | 0.0 | 0.0 | 0.00 | 0.00 | 0.00 | 38 | 1011.0 |
| 20260502211555 | 60 | 286 | 0.0 | 0.0 | 0.00 | 0.00 | 0.00 | 38 | 1010.9 |
| 20260502211526 | 61 | 17 | 0.0 | 0.0 | 0.00 | 0.00 | 0.00 | 39 | 1011.0 |
| 20260502211412 | 61 | 276 | 0.0 | 0.0 | 0.00 | 0.00 | 0.00 | 38 | 1011.0 |
| 20260502211314 | 61 | 19 | 0.0 | 0.0 | 0.00 | 0.00 | 0.00 | 42 | 1011.0 |
| 20260502211227 | 61 | 233 | 0.0 | 0.0 | 0.00 | 0.00 | 0.00 | 40 | 1011.0 |
| 20260502211117 | 61 | 281 | 0.0 | 0.0 | 0.00 | 0.00 | 0.00 | 39 | 1011.0 |
| 20260502211017 | 61 | 31 | 0.0 | 0.0 | 0.00 | 0.00 | 0.00 | 40 | 1011.0 |
| 20260502210922 | 61 | 350 | 0.0 | 0.0 | 0.00 | 0.00 | 0.00 | 39 | 1011.0 |
| 20260502210835 | 61 | 36 | 0.0 | 0.0 | 0.00 | 0.00 | 0.00 | 37 | 1011.0 |
| 20260502210721 | 61 | 26 | 0.0 | 0.0 | 0.00 | 0.00 | 0.00 | 38 | 1010.9 |
| 20260502210611 | 61 | 296 | 0.0 | 0.0 | 0.00 | 0.00 | 0.00 | 43 | 1010.9 |
| 20260502210537 | 61 | 247 | 0.0 | 0.0 | 0.00 | 0.00 | 0.00 | 43 | 1010.9 |
| 20260502210422 | 61 | 285 | 0.0 | 0.0 | 0.00 | 0.00 | 0.00 | 43 | 1010.9 |
| 20260502210336 | 61 | 295 | 0.0 | 0.0 | 0.00 | 0.00 | 0.00 | 44 | 1010.9 |
| 20260502210221 | 61 | 286 | 0.0 | 0.0 | 0.00 | 0.00 | 0.00 | 43 | 1011.0 |
| 20260502210127 | 61 | 261 | 0.0 | 0.0 | 0.00 | 0.00 | 0.00 | 42 | 1010.9 |
| 20260502210054 | 60 | 292 | 0.0 | 0.0 | 0.00 | 0.00 | 0.00 | 45 | 1010.9 |
| 20260502210017 | 61 | 298 | 0.0 | 0.0 | 0.00 | 0.00 | 0.00 | 45 | 1010.9 |
| 20260502205923 | 61 | 298 | 0.0 | 0.0 | 0.00 | 0.00 | 0.00 | 42 | 1010.9 |
| 20260502205809 | 61 | 271 | 0.0 | 0.0 | 0.00 | 0.00 | 0.00 | 41 | 1010.9 |
| 20260502205715 | 61 | 291 | 0.0 | 0.0 | 0.00 | 0.00 | 0.00 | 41 | 1010.9 |
| 20260502205628 | 61 | 290 | 0.0 | 0.0 | 0.00 | 0.00 | 0.00 | 40 | 1010.9 |
| 20260502205514 | 61 | 276 | 0.0 | 0.0 | 0.00 | 0.00 | 0.00 | 40 | 1010.9 |
| 20260502205424 | 61 | 292 | 0.0 | 0.0 | 0.00 | 0.00 | 0.00 | 41 | 1010.9 |
| 20260502205310 | 61 | 288 | 0.0 | 0.0 | 0.00 | 0.00 | 0.00 | 41 | 1011.0 |
| 20260502205243 | 61 | 274 | 0.0 | 4.0 | 0.00 | 0.00 | 0.00 | 40 | 1011.0 |
| 20260502205128 | 61 | 240 | 0.0 | 4.0 | 0.00 | 0.00 | 0.00 | 40 | 1011.0 |
| 20260502205014 | 61 | 270 | 0.0 | 4.0 | 0.00 | 0.00 | 0.00 | 39 | 1011.0 |
| 20260502204921 | 61 | 315 | 0.0 | 4.0 | 0.00 | 0.00 | 0.00 | 40 | 1010.9 |
| 20260502204811 | 61 | 188 | 0.0 | 4.0 | 0.00 | 0.00 | 0.00 | 40 | 1010.9 |
| 20260502204744 | 61 | 313 | 0.0 | 4.0 | 0.00 | 0.00 | 0.00 | 40 | 1010.9 |
| 20260502204609 | 61 | 69 | 0.0 | 4.0 | 0.00 | 0.00 | 0.00 | 42 | 1011.0 |
| 20260502204549 | 61 | 94 | 0.0 | 4.0 | 0.00 | 0.00 | 0.00 | 42 | 1010.8 |
| 20260502204515 | 61 | 313 | 0.0 | 4.0 | 0.00 | 0.00 | 0.00 | 40 | 1011.0 |
| 20260502204421 | 61 | 340 | 0.0 | 4.0 | 0.00 | 0.00 | 0.00 | 41 | 1010.9 |
| 20260502204311 | 61 | 346 | 0.0 | 2.0 | 0.00 | 0.00 | 0.00 | 43 | 1010.9 |
| 20260502204224 | 61 | 266 | 0.0 | 0.0 | 0.00 | 0.00 | 0.00 | 42 | 1010.9 |
| 20260502204109 | 61 | 5 | 0.0 | 0.0 | 0.00 | 0.00 | 0.00 | 41 | 1011.0 |
| 20260502204015 | 61 | 300 | 0.0 | 0.0 | 0.00 | 0.00 | 0.00 | 41 | 1011.0 |
| 20260502203921 | 61 | 315 | 0.0 | 0.0 | 0.00 | 0.00 | 0.00 | 39 | 1011.0 |
| 20260502203854 | 61 | 177 | 0.0 | 0.0 | 0.00 | 0.00 | 0.00 | 41 | 1011.0 |
| 20260502203723 | 61 | 179 | 0.0 | 0.0 | 0.00 | 0.00 | 0.00 | 39 | 1011.0 |
| 20260502203610 | 61 | 32 | 0.0 | 0.0 | 0.00 | 0.00 | 0.00 | 41 | 1011.0 |
| 20260502203516 | 61 | 317 | 0.0 | 1.0 | 0.00 | 0.00 | 0.00 | 40 | 1011.0 |
| 20260502203422 | 61 | 331 | 0.0 | 1.0 | 0.00 | 0.00 | 0.00 | 42 | 1011.0 |
| 20260502203335 | 61 | 34 | 0.0 | 1.0 | 0.00 | 0.00 | 0.00 | 42 | 1011.0 |
| 20260502203241 | 61 | 11 | 0.0 | 1.0 | 0.00 | 0.00 | 0.00 | 42 | 1011.0 |
| 20260502203110 | 61 | 43 | 0.0 | 1.0 | 0.00 | 0.00 | 0.00 | 41 | 1011.0 |
| 20260502203043 | 60 | 38 | 0.0 | 1.0 | 0.00 | 0.00 | 0.00 | 41 | 1010.9 |
| 20260502203016 | 61 | 312 | 0.0 | 1.0 | 0.00 | 0.00 | 0.00 | 41 | 1011.1 |
| 20260502202922 | 61 | 355 | 0.0 | 1.0 | 0.00 | 0.00 | 0.00 | 43 | 1011.1 |
| 20260502202835 | 61 | 37 | 0.0 | 1.0 | 0.00 | 0.00 | 0.00 | 41 | 1011.1 |
| 20260502202741 | 61 | 37 | 0.0 | 1.0 | 0.00 | 0.00 | 0.00 | 40 | 1011.1 |
| 20260502202626 | 61 | 32 | 0.0 | 1.0 | 0.00 | 0.00 | 0.00 | 40 | 1011.1 |
| 20260502202516 | 61 | 32 | 0.0 | 0.0 | 0.00 | 0.00 | 0.00 | 40 | 1011.2 |
| 20260502202429 | 61 | 103 | 0.0 | 0.0 | 0.00 | 0.00 | 0.00 | 40 | 1011.2 |
| 20260502202316 | 60 | 100 | 0.0 | 0.0 | 0.00 | 0.00 | 0.00 | 42 | 1011.2 |
| 20260502202221 | 60 | 38 | 0.0 | 0.0 | 0.00 | 0.00 | 0.00 | 41 | 1011.2 |
| 20260502202147 | 60 | 325 | 0.0 | 0.0 | 0.00 | 0.00 | 0.00 | 39 | 1011.2 |
| 20260502202012 | 60 | 344 | 0.0 | 0.0 | 0.00 | 0.00 | 0.00 | 40 | 1011.2 |
| 20260502201929 | 60 | 57 | 0.0 | 0.0 | 0.00 | 0.00 | 0.00 | 41 | 1011.2 |
| 20260502201815 | 60 | 49 | 0.0 | 0.0 | 0.00 | 0.00 | 0.00 | 41 | 1011.2 |
| 20260502201741 | 60 | 49 | 0.0 | 1.0 | 0.00 | 0.00 | 0.00 | 42 | 1011.2 |
| 20260502201633 | 60 | 49 | 0.0 | 1.0 | 0.00 | 0.00 | 0.00 | 41 | 1011.2 |
| 20260502201519 | 60 | 61 | 0.0 | 1.0 | 0.00 | 0.00 | 0.00 | 41 | 1011.2 |
| 20260502201508 | 60 | 60 | 0.0 | 1.0 | 0.00 | 0.00 | 0.00 | 41 | 1011.1 |
| 20260502201409 | 60 | 32 | 0.0 | 1.0 | 0.00 | 0.00 | 0.00 | 41 | 1011.2 |
| 20260502201315 | 60 | 31 | 0.0 | 1.0 | 0.00 | 0.00 | 0.00 | 41 | 1011.2 |
| 20260502201221 | 61 | 45 | 0.0 | 1.0 | 0.00 | 0.00 | 0.00 | 40 | 1011.2 |
| 20260502201127 | 60 | 211 | 0.0 | 1.0 | 0.00 | 0.00 | 0.00 | 41 | 1011.3 |
| 20260502201040 | 61 | 125 | 0.0 | 1.0 | 0.00 | 0.00 | 0.00 | 40 | 1011.2 |
| 20260502200925 | 61 | 160 | 0.0 | 1.0 | 0.00 | 0.00 | 0.00 | 41 | 1011.2 |
| 20260502200817 | 61 | 180 | 0.0 | 0.0 | 0.00 | 0.00 | 0.00 | 41 | 1011.2 |
| 20260502200722 | 61 | 184 | 0.0 | 0.0 | 0.00 | 0.00 | 0.00 | 43 | 1011.2 |
| 20260502200635 | 61 | 69 | 0.0 | 0.0 | 0.00 | 0.00 | 0.00 | 41 | 1011.2 |
| 20260502200520 | 61 | 84 | 0.0 | 0.0 | 0.00 | 0.00 | 0.00 | 43 | 1011.2 |
| 20260502200426 | 61 | 286 | 0.0 | 0.0 | 0.00 | 0.00 | 0.00 | 42 | 1011.2 |
| 20260502200312 | 61 | 323 | 0.0 | 0.0 | 0.00 | 0.00 | 0.00 | 41 | 1011.2 |
| 20260502200230 | 61 | 304 | 0.0 | 0.0 | 0.00 | 0.00 | 0.00 | 42 | 1011.2 |
| 20260502200135 | 61 | 298 | 0.0 | 0.0 | 0.00 | 0.00 | 0.00 | 41 | 1011.2 |